GFSFLT1_850_thetae_000.txt.gz
Theta_e
345 347 344 344 346 347 350 351 352 353 354 347 347 348 347 348 353 355 353 353 349 346 343 340 341 334 337 334 337 336 327 332 333
343 346 345 343 345 346 348 350 352 351 350 349 348 351 346 345 347 349 353 352 353 347 346 341 344 332 333 334 338 334 333 332 333
343 345 346 344 344 345 347 348 350 350 349 349 351 351 345 343 345 344 350 353 351 342 344 336 342 334 330 327 334 334 332 333 333
341 344 346 346 344 344 347 347 348 351 353 353 349 350 342 338 348 351 348 353 342 336 331 322 327 327 323 329 321 331 334 333 331
335 342 345 347 346 346 346 348 347 348 351 354 353 344 338 341 351 352 353 349 337 325 334 319 316 321 322 329 325 331 335 334 331
339 344 346 347 348 348 348 348 349 350 352 353 354 354 355 349 346 350 354 339 326 324 329 317 318 330 325 325 331 332 335 335 334
341 345 346 348 348 350 350 350 350 351 352 353 355 355 357 357 355 354 351 340 329 325 328 318 323 329 329 328 329 335 335 335 335
340 346 346 348 349 351 352 351 352 354 354 355 355 357 357 358 358 355 349 338 337 335 329 323 324 326 326 328 331 325 331 334 333
340 345 346 348 350 352 355 355 355 355 356 355 356 357 358 358 358 355 351 347 342 343 338 333 329 325 324 327 326 323 329 327 333
340 344 345 347 349 351 354 355 356 356 356 355 356 357 357 358 355 351 349 349 347 345 345 341 334 325 328 329 325 328 328 324 327
339 344 345 346 347 350 352 352 352 352 347 341 352 352 356 355 349 347 347 347 347 346 344 340 331 330 332 331 332 328 333 332 329
341 345 347 347 347 349 348 348 345 339 340 341 348 351 351 345 344 346 347 347 347 345 343 338 339 336 336 336 336 332 331 330 332
338 342 344 345 344 345 345 339 333 333 343 339 337 335 337 339 344 347 349 348 346 344 342 340 339 338 336 335 333 328 327 329 331
342 344 345 345 344 342 333 333 341 345 345 340 334 334 336 340 346 350 348 346 343 343 339 338 338 337 337 335 330 330 331 331 329
344 343 341 340 341 339 343 342 341 334 335 333 334 340 340 345 350 348 346 344 344 343 339 338 337 336 337 336 334 332 332 327 328
340 339 339 340 344 345 343 338 346 341 333 332 335 337 344 349 348 347 345 343 343 340 342 339 338 337 338 336 337 334 329 328 327
342 344 343 342 343 340 330 330 330 330 332 335 338 341 344 345 347 346 345 343 342 340 340 339 338 339 337 335 334 332 325 326 328
343 344 344 343 343 345 333 332 333 335 338 342 343 344 346 348 347 344 343 342 341 340 338 337 336 334 332 330 332 332 331 328 327
345 345 345 346 346 344 343 340 342 344 344 348 350 350 347 346 344 343 341 339 338 336 335 329 327 327 328 328 326 326 326 325 324
334 330 335 346 346 347 345 346 347 346 345 346 345 344 341 341 340 338 338 337 335 332 328 327 328 326 326 325 324 326 325 323 321

GFSFLT1_850_thetae_003.txt.gz
Theta_e
341 347 348 345 347 349 350 350 353 354 356 358 355 359 356 357 355 355 352 353 352 350 347 346 345 348 346 342 340 340 338 335 335
337 344 347 346 345 348 349 349 351 354 355 356 355 358 357 356 357 355 352 351 350 353 348 345 343 346 338 339 339 340 338 334 335
338 340 347 347 345 346 347 349 351 353 355 357 355 357 358 358 359 358 357 354 354 350 349 344 343 345 330 326 330 336 326 335 335
337 340 345 347 346 346 346 347 348 352 354 356 356 357 357 356 358 358 356 355 352 352 349 349 335 317 318 322 335 336 332 335 335
337 339 343 346 347 345 346 346 346 348 350 353 357 358 356 356 355 356 357 354 354 347 333 326 320 315 317 329 326 331 325 336 335
335 339 341 345 346 346 346 346 346 345 349 349 353 357 358 358 356 354 355 354 350 337 331 325 321 318 315 319 320 323 321 324 336
337 338 344 344 346 346 346 346 347 346 346 347 351 355 356 357 357 356 355 352 344 337 324 321 321 321 316 318 324 322 331 327 335
334 335 342 347 348 348 349 348 348 348 347 348 351 354 356 356 358 357 355 354 346 340 328 319 319 320 316 320 332 335 338 336 335
333 334 335 346 349 350 353 351 352 351 350 351 354 356 357 359 360 360 357 354 352 348 339 328 326 322 317 318 330 333 330 331 331
333 334 334 341 348 351 353 353 354 354 355 353 356 356 359 360 361 360 360 357 355 352 344 337 333 324 320 324 333 333 326 321 327
333 333 333 338 346 351 354 354 354 354 357 356 358 358 360 360 360 359 359 357 353 350 348 343 338 332 327 334 337 334 328 327 326
333 333 336 340 348 351 355 355 355 357 358 359 359 361 359 361 360 357 353 350 347 347 347 347 343 337 335 337 338 334 332 332 327
340 339 337 343 349 351 356 356 358 357 357 358 357 359 359 360 351 345 343 343 345 347 348 349 344 341 338 340 340 339 336 334 330
341 339 346 351 350 354 354 353 354 354 354 355 356 355 356 356 346 343 344 346 348 347 345 345 343 341 340 340 340 338 336 330 326
343 344 347 348 350 351 351 350 350 351 350 349 351 352 356 348 345 345 348 349 349 346 344 342 341 340 342 342 339 337 331 328 329
348 347 348 348 348 346 346 348 349 351 353 353 355 356 351 346 352 351 350 347 345 343 341 344 343 343 341 341 339 336 334 331 330
341 342 344 346 347 350 353 351 352 358 358 357 357 354 346 348 353 351 349 345 343 342 342 341 343 342 341 339 338 338 335 333 330
344 344 343 345 348 350 352 354 356 355 356 356 350 350 353 351 350 348 348 345 343 342 343 341 342 340 337 337 336 336 334 328 327
345 345 345 346 346 348 350 352 353 352 353 355 353 354 352 350 346 347 344 343 342 342 339 338 337 335 333 334 332 332 329 329 326
337 342 343 344 344 346 348 350 352 351 354 351 348 348 346 346 346 344 343 341 340 338 337 335 329 327 327 327 327 327 326 326 325

GFSFLT1_850_thetae_006.txt.gz
Theta_e
346 348 348 347 348 348 351 352 352 355 358 357 357 355 354 354 350 347 346 353 348 352 348 346 348 348 345 341 337 329 325 324 326
342 347 348 348 348 349 351 352 352 354 358 358 358 356 356 353 350 346 345 352 354 353 349 347 346 346 343 336 333 333 332 327 335
339 339 348 349 347 350 351 352 352 354 356 358 360 358 356 355 351 349 344 350 351 351 354 348 347 345 341 335 333 335 335 328 335
338 338 346 347 348 348 351 353 353 354 356 359 362 361 358 354 352 342 348 351 353 351 350 352 348 344 341 334 333 335 331 329 332
338 337 339 344 348 348 349 352 353 354 356 358 361 361 359 354 346 347 344 349 351 351 352 351 349 346 339 336 337 329 327 321 330
339 338 342 343 347 348 348 349 350 353 355 358 361 362 358 357 353 349 344 335 345 351 350 347 341 345 339 330 334 327 325 321 321
337 336 344 344 345 349 347 348 349 351 354 356 358 361 359 359 357 349 342 337 332 342 346 346 342 340 337 330 325 324 325 325 323
336 337 343 343 345 346 348 348 349 349 350 352 354 357 360 360 358 353 352 349 336 344 349 350 348 348 347 339 324 323 329 331 329
338 336 335 345 342 345 349 349 349 349 348 350 350 352 357 358 359 360 359 355 353 356 356 357 355 350 346 340 330 320 333 333 337
338 336 335 336 347 346 348 352 349 349 348 349 349 350 355 354 357 359 359 357 357 357 357 357 356 352 344 338 333 330 337 338 336
334 337 335 333 333 347 349 354 354 351 351 349 349 350 354 354 355 359 358 358 358 357 357 357 356 351 345 339 333 328 329 333 331
331 330 337 335 333 334 347 352 354 354 354 350 352 351 358 357 361 364 361 360 360 359 357 360 355 350 343 337 333 332 334 333 331
332 330 332 335 337 337 347 352 354 355 357 356 353 355 359 363 364 364 362 361 360 358 358 351 350 349 344 339 337 335 336 339 333
342 333 332 335 340 349 350 353 356 356 358 361 358 361 364 365 365 362 360 359 355 353 349 350 350 348 345 343 340 338 340 340 338
338 344 341 345 352 352 356 358 359 361 361 363 363 364 364 365 363 361 357 352 349 349 348 347 346 345 343 341 340 341 340 338 333
347 347 347 352 357 358 358 359 360 360 360 361 362 361 361 362 358 351 349 348 350 348 347 345 344 342 341 341 340 339 338 336 330
349 350 351 353 354 355 356 356 357 357 356 356 356 357 354 352 349 349 349 348 348 346 344 343 342 343 341 341 340 340 337 336 332
349 349 350 353 354 357 356 358 358 358 358 357 352 350 352 348 351 348 349 349 347 343 342 342 342 342 339 337 339 337 335 332 326
348 349 350 351 353 355 354 357 356 356 354 353 350 351 349 350 349 348 348 347 344 344 342 343 341 340 340 336 335 335 334 329 324
345 346 347 349 351 353 353 354 354 354 352 351 342 345 349 350 348 347 346 343 341 342 342 339 338 337 335 332 329 330 328 325 326

GFSFLT1_850_thetae_009.txt.gz
Theta_e
345 345 343 344 344 347 349 349 350 351 350 350 352 353 353 351 351 350 343 349 353 351 349 349 349 344 342 338 340 333 321 321 320
344 344 345 344 344 346 349 350 349 350 353 352 352 353 354 350 353 349 346 348 351 354 352 350 345 346 347 347 343 338 323 321 322
342 342 343 346 345 346 348 348 348 350 352 353 353 354 355 351 348 350 347 345 349 353 352 349 346 346 346 346 344 337 324 323 324
341 342 344 346 346 346 347 349 349 350 352 354 355 354 354 354 347 349 348 345 344 350 354 353 349 347 346 346 344 331 322 323 325
340 340 342 346 347 348 349 350 351 350 351 353 355 355 354 353 351 346 350 344 343 344 350 352 352 351 348 346 342 335 323 320 326
340 339 346 348 348 350 350 350 351 352 352 352 353 355 355 354 353 346 348 346 344 341 345 349 351 352 351 350 347 339 330 323 326
337 339 342 348 349 349 351 351 351 352 354 352 352 354 355 354 352 345 340 339 339 344 345 350 351 351 350 350 348 346 337 327 329
337 338 343 347 349 348 348 351 352 353 353 353 352 354 355 353 350 349 342 344 340 339 348 350 353 353 352 352 350 348 341 330 329
336 338 342 342 346 348 348 349 351 353 354 354 352 352 353 353 353 353 351 348 342 345 347 350 354 356 354 352 351 349 345 336 332
335 335 342 344 343 346 348 347 347 350 351 352 352 350 352 352 353 354 354 355 354 354 355 358 357 357 356 354 353 351 348 339 332
333 336 335 339 336 341 344 349 348 347 349 352 352 350 350 351 352 352 355 357 358 359 359 359 358 357 358 356 355 351 344 335 329
330 332 334 332 336 337 335 345 349 348 350 350 351 351 348 350 349 350 356 359 359 361 361 360 360 358 357 354 351 347 340 334 335
333 331 329 332 331 332 337 343 347 353 349 350 350 350 349 348 351 351 357 361 360 362 360 355 354 359 354 352 348 342 340 335 330
339 339 334 333 330 331 334 340 347 354 353 350 349 349 351 350 352 356 359 361 360 357 356 354 356 353 350 348 344 342 338 336 336
342 341 338 342 338 333 333 341 348 354 354 352 352 353 353 357 358 360 362 360 358 356 355 356 351 348 347 346 344 341 339 338 339
346 346 343 343 349 349 344 345 351 355 357 357 355 357 361 366 365 367 367 358 355 356 350 348 348 346 345 343 342 340 340 340 340
351 351 356 354 357 362 362 360 358 357 359 362 361 361 366 367 366 364 361 357 349 345 347 346 346 345 343 342 341 339 339 337 336
354 356 357 357 358 359 360 362 362 362 362 363 364 364 362 362 363 361 356 348 347 347 346 345 342 341 341 340 339 338 337 335 333
347 348 349 356 358 359 360 359 359 359 360 359 359 357 358 358 356 347 347 347 346 346 344 342 342 341 340 338 334 337 336 332 326
341 343 339 351 355 357 355 353 352 353 350 352 351 352 352 350 344 346 346 347 345 344 340 340 341 340 339 337 336 335 332 331 325

GFSFLT1_850_thetae_012.txt.gz
Theta_e
341 340 342 344 344 345 345 346 347 347 347 348 349 349 349 349 349 348 347 346 350 351 347 346 348 348 347 343 338 336 329 320 321
342 341 340 342 344 344 346 346 346 347 348 348 348 349 349 349 350 347 347 347 344 344 343 346 348 348 348 344 339 337 337 321 320
342 341 341 341 342 344 346 346 346 347 347 348 348 349 349 350 350 346 346 347 343 346 349 350 349 350 345 344 345 345 337 328 320
343 343 342 342 342 343 344 346 347 347 347 348 349 349 349 350 351 349 347 347 346 346 351 353 352 350 346 344 344 345 344 333 322
344 344 343 344 344 343 345 346 348 347 347 348 349 349 350 351 351 351 347 347 345 345 349 351 353 351 348 347 346 345 344 341 324
341 342 341 341 343 344 344 346 348 348 347 347 348 350 351 351 351 352 350 343 345 343 345 347 354 353 351 349 348 347 346 342 332
341 341 340 340 343 344 345 346 348 348 348 347 348 349 352 351 350 351 350 347 341 342 342 344 345 353 353 352 351 350 349 347 343
339 341 338 339 343 345 346 347 348 348 348 348 348 349 350 351 350 350 351 349 343 340 342 342 344 349 351 351 351 351 350 349 346
338 337 339 338 343 345 346 347 347 348 349 348 349 349 349 349 350 351 351 350 348 340 340 344 346 347 350 351 352 351 351 350 347
333 339 338 342 345 345 346 347 347 349 349 349 351 350 350 350 350 349 350 350 350 348 343 344 350 351 353 355 353 353 352 350 348
332 335 338 337 346 346 347 348 347 347 349 350 351 351 350 350 350 349 349 350 349 351 351 351 352 353 354 354 351 349 350 352 351
330 332 335 339 342 346 347 347 347 348 350 351 352 352 351 350 350 350 351 350 349 351 354 355 355 355 357 352 333 353 355 353 348
329 328 330 334 335 333 335 346 346 346 349 350 351 351 350 349 350 351 351 351 353 353 354 355 357 358 357 342 343 354 353 347 342
337 332 329 329 332 334 332 334 347 346 347 348 346 346 348 352 352 351 350 353 357 355 354 358 360 358 356 350 354 352 345 341 339
340 337 337 336 332 331 329 332 332 340 346 344 345 348 352 354 354 353 354 355 359 357 356 356 355 356 355 356 349 345 342 340 338
349 345 341 338 336 336 332 332 333 335 339 344 349 350 352 353 354 354 354 357 359 357 357 355 357 356 355 348 345 343 342 340 338
350 354 360 361 360 357 341 337 336 344 339 343 350 350 351 352 353 355 356 359 358 356 357 354 354 351 346 345 344 342 340 339 339
352 353 353 352 349 356 360 361 345 349 351 352 352 351 352 355 358 358 361 363 358 355 353 352 348 343 343 343 342 341 338 338 336
339 343 344 345 338 337 333 345 353 358 357 354 353 357 358 359 362 362 361 356 351 348 346 345 342 340 339 339 339 338 337 335 332
330 331 332 332 332 330 333 336 334 357 361 359 357 357 360 359 354 353 347 332 332 346 344 342 340 340 339 338 332 333 334 332 327

GFSFLT1_850_thetae_015.txt.gz
Theta_e
339 341 342 343 344 345 346 348 348 348 348 347 348 348 348 348 349 348 348 346 345 343 347 348 347 346 348 346 343 343 339 335 323
340 340 341 342 343 343 344 346 347 347 347 347 347 348 348 348 348 348 348 347 344 345 347 349 346 346 347 348 346 344 340 336 322
340 340 340 342 342 343 343 344 345 345 345 345 345 346 347 348 348 348 348 348 342 344 345 349 348 344 346 348 348 344 339 337 332
341 340 341 341 342 343 343 343 345 345 346 345 346 346 346 347 347 348 349 349 342 342 341 344 345 343 347 348 348 343 344 343 340
336 337 340 340 340 341 343 343 344 345 344 345 344 345 346 347 347 348 348 350 345 339 340 341 346 349 349 349 348 344 344 344 344
331 333 339 341 340 340 341 343 343 344 345 344 344 345 346 347 347 348 348 350 347 341 341 343 345 349 351 351 350 347 346 346 345
330 334 341 342 341 340 340 341 343 343 345 345 345 345 347 347 347 348 348 350 349 343 341 342 345 346 349 351 351 349 348 347 346
328 336 341 342 342 342 342 341 342 343 345 346 346 345 346 346 347 348 348 349 350 348 341 341 341 344 347 347 352 352 350 349 349
327 335 338 341 342 343 343 343 343 342 344 346 347 347 346 346 347 347 349 349 350 350 348 342 342 343 343 345 346 349 352 351 350
326 326 327 333 339 340 341 340 341 342 343 345 347 347 347 348 348 347 348 350 350 350 349 349 342 343 344 343 343 342 346 350 348
327 329 329 331 332 337 338 339 339 341 343 345 347 347 348 349 348 347 348 351 351 350 350 348 347 342 342 344 342 343 346 353 335
327 327 328 329 336 338 339 339 340 344 345 346 348 348 348 349 348 347 349 349 351 352 352 350 348 348 342 342 342 345 349 355 340
327 328 330 332 334 336 340 342 342 344 345 346 347 347 347 347 348 349 349 349 350 352 353 351 351 349 345 346 350 353 355 338 338
338 334 330 330 335 340 341 343 345 347 348 348 345 346 346 348 350 350 349 350 352 352 353 355 352 351 350 352 356 356 355 341 351
342 341 340 342 343 337 333 342 345 347 347 345 347 347 350 351 351 353 355 354 355 356 357 356 353 355 356 357 357 356 349 353 347
348 348 349 348 346 348 346 345 337 336 340 344 346 347 347 349 352 355 356 356 357 358 359 357 358 357 358 356 356 353 348 343 339
348 347 344 342 339 341 347 346 353 352 344 345 347 347 347 348 351 353 344 356 358 358 359 356 356 355 353 352 350 348 343 341 340
347 348 348 350 350 348 344 347 343 340 353 356 350 348 348 351 353 354 356 358 359 359 358 354 351 351 348 347 347 343 340 340 339
336 337 336 337 338 336 336 337 336 337 333 340 357 349 348 350 352 354 356 356 358 359 357 351 347 342 336 335 340 342 339 337 337
335 334 333 333 335 335 334 333 334 333 331 332 338 357 354 354 353 354 356 354 357 349 344 337 335 333 332 338 340 339 336 337 337

GFSFLT1_850_thetae_018.txt.gz
Theta_e
342 345 347 347 347 347 346 346 346 347 346 346 347 347 347 348 348 348 348 348 347 344 342 342 343 344 346 347 347 346 343 339 337
337 340 342 345 346 347 346 345 344 343 345 345 346 346 346 347 347 348 348 348 348 347 344 341 343 346 348 345 346 346 344 339 335
337 337 338 341 342 344 345 344 344 344 343 344 344 345 346 346 346 347 347 348 348 348 345 344 342 347 348 345 346 348 346 343 337
335 338 338 338 340 341 342 343 344 343 344 344 345 346 346 347 347 347 348 348 347 347 346 343 343 345 347 345 345 348 347 344 338
330 333 337 339 339 340 341 341 342 343 343 344 344 344 344 345 346 346 347 347 347 347 347 342 343 343 346 345 344 347 348 344 342
330 332 334 338 339 339 340 341 341 342 343 343 343 345 345 345 345 346 346 346 347 347 348 344 341 343 341 342 343 348 348 345 342
327 329 329 329 332 337 339 340 341 342 342 343 343 345 345 345 345 345 345 345 346 347 347 347 340 342 338 344 348 348 348 348 346
325 326 328 328 333 338 339 339 340 341 341 342 343 343 344 344 344 345 345 345 346 347 347 348 342 340 341 342 346 348 346 348 348
324 326 327 327 334 340 340 340 339 341 341 342 342 343 343 343 345 345 345 345 346 347 347 348 347 342 341 343 343 344 344 346 349
325 326 326 326 331 337 341 341 341 341 341 342 342 343 343 344 346 346 345 345 346 347 347 347 349 346 343 342 342 342 343 345 347
326 326 326 326 326 328 338 342 342 342 341 342 343 343 345 346 346 346 347 347 346 346 347 346 347 348 346 342 343 343 342 342 344
324 326 326 326 328 328 331 336 341 342 341 342 343 343 345 345 345 346 347 347 346 346 347 348 347 348 348 347 341 340 340 342 344
324 325 325 326 327 329 332 335 336 335 339 340 342 342 342 343 345 346 348 348 348 347 347 348 349 349 349 348 347 341 339 342 345
329 328 327 327 330 333 337 339 340 340 341 342 341 343 346 347 347 347 347 347 349 351 350 351 351 350 349 348 348 346 341 345 347
343 342 342 338 331 331 332 337 343 343 344 345 346 347 347 349 351 351 349 346 337 350 355 354 353 353 352 351 350 350 347 350 352
348 347 347 346 344 342 344 344 334 340 346 348 349 349 349 349 350 351 349 351 349 355 355 354 355 354 357 358 354 352 351 355 354
345 346 346 344 344 344 342 340 339 341 345 349 347 344 344 348 350 351 353 353 356 357 357 355 355 354 350 358 351 354 354 352 346
335 336 338 338 338 338 338 337 338 339 339 339 339 338 339 347 346 348 351 352 354 357 357 357 355 358 357 356 353 349 348 345 342
335 335 335 336 336 335 334 334 333 332 332 332 332 333 333 334 340 348 350 353 355 357 357 358 357 358 356 353 348 344 338 332 335
335 336 337 335 335 334 334 333 334 337 336 335 334 334 335 334 336 339 347 353 356 356 358 358 358 353 351 343 342 339 333 332 332

GFSFLT1_850_thetae_021.txt.gz
Theta_e
346 349 349 350 350 350 346 346 344 345 347 346 345 344 345 346 347 348 348 347 347 347 345 343 340 342 343 343 347 348 348 345 340
341 345 347 349 349 349 347 346 345 343 343 345 346 346 345 345 346 347 348 347 347 348 347 346 340 341 343 343 345 346 347 343 338
337 338 342 345 348 348 347 346 345 345 343 340 340 341 345 345 345 346 347 348 347 347 348 348 346 342 342 343 345 344 346 345 341
335 336 338 340 344 347 346 347 347 346 345 343 342 341 341 343 343 344 346 347 347 346 347 348 348 345 342 343 345 344 345 347 345
334 338 337 334 340 343 345 345 345 345 344 345 344 343 342 342 343 344 345 345 346 346 346 347 348 347 344 342 345 343 344 347 347
329 330 333 333 339 340 338 339 342 344 343 342 342 344 344 343 343 344 344 344 345 346 346 346 347 348 344 342 343 344 343 345 347
328 326 327 332 333 331 335 338 339 340 342 343 343 344 344 344 343 343 343 344 345 346 346 346 347 347 345 341 342 343 342 344 347
326 326 326 327 328 328 329 333 338 339 339 342 343 343 343 342 343 343 344 344 344 345 346 346 346 347 347 340 341 340 340 342 345
327 326 325 325 326 327 329 335 336 337 339 340 341 342 341 342 343 343 343 345 345 345 345 346 346 347 347 345 338 336 337 342 345
327 326 326 326 326 326 327 328 328 339 339 340 341 341 342 343 344 344 344 344 345 344 344 345 346 346 347 347 337 336 336 340 344
326 325 325 325 326 326 326 327 333 337 340 340 340 341 342 342 343 343 344 345 344 345 345 345 345 346 347 347 344 335 335 338 341
323 324 325 325 325 325 325 325 326 336 340 340 340 341 341 341 342 343 345 346 345 345 346 346 345 346 346 346 344 338 335 338 342
324 324 324 324 325 326 327 327 329 333 339 340 341 341 342 343 345 345 345 345 348 348 346 345 346 346 347 346 344 341 339 340 343
325 325 325 325 325 326 327 328 332 334 335 336 338 340 342 343 344 345 346 347 347 348 350 350 348 346 346 347 346 345 344 345 346
329 330 331 327 326 327 329 335 338 340 340 340 341 342 343 343 344 346 348 348 349 350 351 351 351 350 350 347 347 348 347 347 350
345 344 339 336 334 332 332 333 336 341 343 345 345 346 346 347 347 348 349 350 350 352 355 352 354 355 353 352 350 350 350 350 350
341 340 341 341 340 342 344 343 342 342 343 345 345 345 345 344 346 348 350 352 353 355 355 356 355 357 354 349 350 347 351 352 354
336 336 335 336 337 337 336 336 336 335 335 335 335 335 335 336 342 346 347 348 350 352 353 353 353 356 355 351 342 335 353 353 352
339 338 337 337 338 336 336 335 335 334 334 334 334 333 333 333 333 337 345 352 349 351 353 353 353 355 355 354 350 355 354 355 352
340 340 340 339 339 339 339 338 338 338 338 338 336 335 335 334 335 344 347 350 352 354 352 355 357 357 356 356 356 356 355 348 337

GFSFLT1_850_thetae_024.txt.gz
Theta_e
343 348 349 350 351 352 352 350 351 352 353 347 343 342 341 342 344 350 353 354 354 354 352 351 352 352 344 342 345 344 347 349 348
337 346 349 350 350 351 353 353 352 351 346 341 343 342 341 342 343 345 353 352 353 354 354 352 353 352 342 346 342 342 347 349 346
336 341 347 348 349 350 352 354 354 354 348 337 337 341 343 343 343 344 345 347 348 350 353 350 353 352 347 347 343 341 344 349 348
336 339 342 345 347 348 350 352 354 355 355 352 343 339 339 341 342 343 344 345 346 346 347 349 348 348 344 345 346 342 344 344 352
335 336 338 340 342 345 348 350 352 353 355 355 349 343 340 339 340 341 342 343 344 345 346 347 347 348 348 345 346 344 343 341 350
334 336 339 341 340 341 345 348 351 351 353 354 354 355 351 347 342 340 340 341 341 343 344 345 346 347 348 347 344 344 342 341 341
331 334 335 337 338 339 342 345 348 350 350 351 353 353 356 354 345 342 341 341 342 342 343 345 346 346 346 347 346 346 342 341 340
329 331 333 335 339 341 344 344 346 347 351 350 350 351 354 354 344 344 344 343 342 343 344 344 345 346 346 346 347 350 341 338 339
328 328 328 329 331 338 338 338 339 347 348 348 350 350 350 353 353 348 344 346 345 344 344 344 345 346 346 346 347 348 341 335 337
327 328 329 330 332 334 337 338 335 334 344 350 349 348 351 350 351 348 347 349 348 345 345 348 345 345 346 346 346 346 340 333 335
328 328 329 330 330 330 331 336 335 344 347 340 343 347 345 348 347 348 355 351 348 347 349 348 346 345 345 346 346 345 345 341 336
329 329 330 330 330 331 332 334 335 339 347 346 349 343 341 340 344 348 351 349 345 346 349 350 348 348 345 345 345 346 345 345 344
328 329 330 330 330 332 331 326 330 340 344 347 339 343 345 343 341 343 342 342 345 348 348 348 355 355 348 345 345 345 344 345 347
336 335 334 334 333 330 328 329 327 335 344 339 344 351 352 348 346 343 343 344 345 348 350 355 355 355 355 351 345 345 346 344 345
339 337 339 342 335 335 342 332 333 333 333 342 352 353 354 353 348 352 357 351 350 353 356 356 355 357 357 357 351 346 346 347 346
343 344 346 347 344 349 350 344 351 348 345 347 352 351 352 354 356 356 354 356 357 359 357 358 359 358 358 357 356 353 349 346 346
347 346 346 347 350 350 351 355 357 358 348 346 349 350 353 355 358 359 360 359 360 359 359 361 359 359 359 359 359 358 358 351 353
344 342 343 346 347 347 347 347 345 345 345 346 356 356 357 358 357 357 359 360 359 359 359 359 360 360 359 359 358 358 356 353 353
343 345 346 347 347 345 344 343 338 335 334 333 333 334 341 346 348 350 354 355 358 357 356 359 359 358 358 359 358 356 354 352 354
344 342 342 343 342 346 345 340 340 338 341 337 336 341 338 346 343 349 348 349 351 353 356 359 355 356 358 357 356 358 357 355 354

GFSFLT1_850_thetae_027.txt.gz
Theta_e
342 343 347 350 351 352 349 347 348 351 353 355 356 352 352 340 341 353 352 352 352 352 350 350 350 351 351 353 354 347 352 354 353
339 342 346 349 351 352 351 348 349 351 353 353 348 347 344 342 339 341 353 352 350 356 354 351 350 352 354 354 354 354 352 353 353
337 339 345 348 350 352 353 352 350 351 353 353 342 344 338 335 337 339 344 353 354 356 355 354 354 353 355 353 353 352 351 353 353
337 337 343 347 350 350 352 353 353 352 354 355 355 343 341 337 335 338 339 344 351 350 352 356 351 356 353 349 347 350 351 350 352
335 337 340 346 348 349 350 352 354 355 355 356 355 351 344 340 339 337 338 339 342 346 346 347 355 351 355 351 347 349 352 348 351
336 337 339 342 346 347 348 349 352 354 356 356 357 358 356 355 345 341 339 340 339 341 342 343 345 351 352 350 350 348 345 344 341
336 337 340 341 341 341 345 347 350 353 354 356 357 357 358 359 356 342 343 345 340 339 339 340 342 347 349 349 348 348 345 338 338
333 336 337 337 339 341 342 345 349 351 353 354 355 356 357 358 359 359 359 356 349 343 340 339 339 342 345 346 348 353 350 348 343
331 331 332 334 335 337 343 344 347 350 353 353 352 355 355 357 359 360 360 359 357 354 344 340 341 341 342 344 345 349 353 351 346
330 330 330 331 331 332 337 341 344 346 350 352 352 352 356 356 358 359 361 361 361 357 352 352 346 343 344 343 344 345 346 351 350
330 330 330 330 331 331 333 334 335 341 345 349 352 354 353 356 356 359 359 357 353 360 360 352 354 352 349 346 344 344 345 346 349
329 330 330 331 331 331 332 333 334 337 345 348 347 342 351 354 358 359 359 353 350 357 357 357 355 358 358 351 345 345 344 346 347
338 332 333 333 331 332 333 334 335 335 338 344 349 343 346 354 356 358 358 356 353 353 360 359 360 357 355 350 345 348 346 345 349
343 343 343 340 340 339 336 337 337 338 338 342 343 354 355 357 355 358 358 355 352 354 359 362 361 359 361 361 358 349 345 345 350
346 345 343 338 340 344 341 339 342 345 342 342 348 351 355 358 358 359 360 357 358 360 360 360 360 361 361 361 360 360 355 349 349
348 346 347 346 347 345 347 353 354 352 349 351 353 355 356 358 358 359 358 360 360 363 361 362 362 362 362 362 361 362 360 358 354
348 348 348 347 350 352 355 360 359 360 363 359 358 359 359 359 361 361 363 361 363 362 362 362 362 361 361 360 361 361 362 363 361
348 347 346 350 352 354 354 354 354 354 356 361 361 362 362 362 362 362 363 362 361 362 362 362 362 362 361 361 361 361 362 361 362
348 349 349 352 352 350 350 351 352 352 352 353 355 360 361 360 359 361 362 361 363 360 361 361 360 359 360 361 361 360 360 361 360
342 343 345 348 350 350 347 343 344 349 349 350 351 352 347 349 346 348 349 352 353 354 356 355 356 356 356 358 358 359 359 358 358

GFSFLT1_850_thetae_030.txt.gz
Theta_e
342 345 349 352 353 352 350 349 351 353 353 352 351 350 347 347 352 353 346 349 350 351 352 351 352 352 349 347 345 346 351 347 350
341 343 345 350 352 353 351 349 350 351 354 352 351 348 349 341 344 349 340 349 352 354 351 352 351 350 350 350 350 345 346 351 347
340 341 343 349 352 353 352 349 350 351 353 352 345 345 343 340 335 337 339 338 349 351 355 350 353 351 351 350 351 349 351 346 347
339 342 344 347 352 353 353 351 350 351 352 354 353 347 338 337 339 336 336 339 340 347 351 357 350 357 353 351 351 346 350 349 347
338 339 345 346 349 353 354 353 351 351 353 355 354 350 348 343 339 336 334 335 336 339 346 347 357 351 357 354 354 345 344 342 345
338 339 340 345 349 351 354 354 353 353 353 354 358 360 358 354 347 341 337 334 333 336 340 345 344 351 351 356 354 350 345 340 340
337 340 338 345 348 350 352 354 355 355 354 355 357 360 361 359 356 350 349 344 339 336 338 338 341 342 348 351 349 348 348 348 342
338 340 342 344 347 350 350 351 354 355 355 356 356 357 360 359 358 357 355 355 351 349 343 339 337 339 341 346 349 346 345 348 347
334 335 339 340 340 342 344 351 351 353 355 357 357 357 357 357 358 359 360 360 359 354 348 346 345 342 342 343 343 343 342 343 346
332 333 333 333 336 337 339 341 352 353 352 354 356 357 357 358 359 359 359 359 360 360 357 354 350 350 348 343 341 339 340 341 343
332 332 331 331 331 333 332 335 343 348 353 352 351 355 356 360 359 360 360 360 360 360 361 358 356 354 351 350 343 342 340 341 344
331 331 332 331 332 332 332 335 339 341 340 346 349 347 352 353 357 359 360 360 360 360 361 363 360 356 358 355 350 351 350 351 353
345 345 345 343 340 338 333 335 334 335 343 346 344 343 342 347 352 354 358 360 361 360 361 362 364 361 358 360 358 359 358 360 359
346 346 345 344 342 342 340 336 336 337 336 340 344 343 347 347 347 351 358 360 364 363 364 364 363 363 363 360 359 360 362 364 363
344 347 346 344 342 338 341 343 335 337 338 337 342 346 348 350 350 355 360 362 364 366 364 363 362 364 362 362 363 362 362 363 363
348 349 348 351 349 347 347 347 348 347 349 348 343 352 350 352 353 360 359 363 363 364 363 362 362 362 362 364 365 363 364 364 363
346 351 350 348 349 351 358 361 361 358 359 357 353 353 357 357 358 362 361 361 364 362 363 362 362 365 365 365 364 362 362 362 362
342 348 353 353 354 356 358 358 362 363 363 361 362 359 360 362 362 363 363 362 361 366 364 363 364 364 362 362 362 365 363 363 364
340 343 347 352 353 353 353 354 354 354 351 357 365 363 364 364 363 363 362 364 362 361 362 363 362 362 361 361 361 361 361 362 361
339 342 345 346 351 352 350 349 350 352 353 354 356 356 359 355 360 353 365 361 364 364 361 360 360 360 359 359 359 359 359 359 360

GFSFLT1_850_thetae_033.txt.gz
Theta_e
342 345 349 350 349 349 349 349 349 351 351 350 351 350 349 346 348 351 348 347 347 347 348 348 350 349 351 344 345 345 341 344 346
346 349 351 350 349 349 348 349 349 351 351 351 350 350 349 345 346 350 347 345 347 349 350 352 351 350 350 351 349 346 341 343 346
343 350 348 351 350 349 348 348 348 350 351 350 350 350 349 344 337 340 342 343 344 350 349 351 353 352 350 351 350 349 348 342 342
339 345 351 352 351 350 350 349 348 349 351 351 351 349 348 344 337 336 342 341 339 345 354 352 351 353 354 350 350 350 350 343 343
339 342 350 353 352 352 351 350 350 349 349 350 349 348 348 349 343 337 336 339 334 337 340 350 350 349 351 356 353 351 351 343 339
336 342 350 352 354 353 352 351 350 350 349 348 348 349 349 347 348 345 337 335 334 334 335 335 345 356 352 351 355 355 353 351 338
335 342 348 351 353 354 353 352 351 350 350 349 349 349 348 347 346 345 342 336 334 335 334 334 336 342 355 354 352 352 354 352 348
339 339 346 350 352 354 354 353 352 351 351 350 350 350 349 347 345 344 343 340 335 332 333 336 335 336 339 346 351 351 350 349 348
338 342 346 349 350 353 354 353 353 353 352 352 352 352 352 352 352 352 350 344 340 338 335 335 336 336 337 341 343 344 344 345 347
333 332 333 338 342 351 354 355 354 354 353 353 353 353 353 354 355 355 355 355 354 347 343 342 340 341 341 341 339 341 345 346 348
332 332 333 332 332 334 338 341 354 353 354 354 355 355 355 356 356 356 357 357 357 357 356 352 349 347 347 347 343 343 344 348 352
344 342 338 335 335 336 333 333 335 355 354 354 355 356 357 356 356 356 357 358 358 358 358 358 358 357 356 354 352 353 354 355 355
346 344 343 338 336 339 340 341 338 343 349 353 355 355 356 356 358 358 358 359 359 359 359 359 359 359 359 358 358 359 360 360 360
348 347 346 342 339 340 341 341 336 342 345 345 344 348 349 349 349 352 355 356 359 361 361 361 361 361 362 362 361 362 364 364 363
351 351 349 350 347 345 340 339 340 336 337 343 346 346 345 344 344 344 346 351 355 360 362 363 363 364 364 364 362 363 363 364 363
342 349 349 349 349 349 353 348 346 342 337 340 345 341 343 349 351 350 351 352 357 362 363 365 365 365 363 362 361 361 362 362 362
337 343 349 349 351 358 359 358 355 349 344 338 342 345 344 341 354 356 355 356 361 363 364 364 365 363 362 361 361 362 362 362 364
330 335 336 342 350 354 355 356 359 361 359 357 359 356 355 358 356 355 356 359 362 362 362 362 361 361 360 361 362 364 364 365 365
333 330 333 332 339 349 353 352 349 349 351 357 361 361 361 362 361 359 361 360 361 362 364 366 364 362 364 365 364 361 361 361 360
333 330 335 343 344 345 349 350 348 348 349 348 358 364 363 361 361 362 361 361 362 363 362 362 364 363 361 359 358 359 359 359 359

GFSFLT1_850_thetae_036.txt.gz
Theta_e
346 347 347 348 348 348 347 347 348 348 347 347 347 347 348 346 344 345 343 343 346 348 348 347 347 347 349 348 346 347 343 346 346
347 347 346 345 347 348 348 348 347 348 348 348 348 348 348 348 346 345 343 341 344 344 345 348 347 348 349 348 348 344 344 342 345
348 348 346 346 347 348 348 348 347 348 348 348 348 348 348 349 349 347 343 342 343 342 343 345 347 350 350 349 350 349 347 344 341
347 347 347 344 346 348 348 348 348 348 348 348 349 348 348 348 349 349 347 342 341 342 340 345 348 351 351 350 350 350 350 349 347
345 345 346 346 347 347 348 348 349 348 348 348 348 346 347 348 348 349 348 343 339 340 340 344 350 350 351 352 353 351 350 350 349
343 344 345 347 348 348 348 348 349 349 348 348 348 348 348 348 348 349 347 342 336 336 339 341 348 354 351 350 351 353 353 350 350
333 344 348 349 349 348 347 348 348 348 349 348 348 349 348 348 348 347 344 340 337 334 334 336 339 345 351 350 348 349 350 353 352
337 346 348 348 349 349 349 349 349 349 349 349 349 349 348 346 345 345 342 340 338 336 335 333 334 335 342 343 349 351 350 351 350
339 346 349 350 350 350 350 350 350 350 350 350 350 350 349 348 346 344 342 340 337 336 335 334 334 334 334 335 336 341 349 351 351
341 346 350 352 351 351 350 350 350 350 350 350 350 350 350 350 349 347 345 342 340 338 336 334 334 334 334 334 335 335 336 339 343
338 340 346 349 351 352 352 352 351 350 351 351 351 351 351 351 351 351 351 351 351 350 350 348 344 339 337 336 337 338 339 341 343
344 340 340 342 348 351 353 353 353 352 351 351 351 351 351 351 352 352 352 353 354 355 355 355 355 355 354 353 352 351 351 351 352
347 344 342 340 340 338 337 344 350 353 354 353 352 352 352 352 352 353 353 354 354 355 355 356 356 357 357 357 357 358 359 360 360
350 349 347 342 339 340 341 340 339 344 353 354 354 353 353 353 353 354 355 355 356 356 357 357 358 358 359 359 359 360 360 361 362
349 350 350 348 341 340 339 341 342 338 350 356 356 355 352 353 354 355 357 357 357 358 358 359 359 360 361 361 361 362 362 362 362
340 345 353 358 358 356 352 347 346 344 340 343 345 349 352 354 356 355 354 354 354 357 358 360 361 362 362 362 363 363 362 360 360
331 332 337 350 354 355 356 358 359 356 353 348 342 338 340 343 342 346 349 350 351 352 353 357 361 363 363 363 361 360 359 360 361
330 329 332 337 349 350 352 352 352 351 353 357 359 355 345 340 339 340 347 356 356 356 354 359 361 362 361 362 362 360 359 363 363
330 328 330 338 339 344 348 349 347 344 343 344 347 358 359 358 359 356 359 360 358 360 361 362 362 359 361 362 361 360 361 361 360
328 326 326 334 342 343 343 344 345 343 345 345 343 353 357 360 362 362 360 359 358 359 364 361 359 362 360 358 357 363 362 361 358

GFSFLT1_850_thetae_039.txt.gz
Theta_e
344 341 345 347 347 347 348 348 348 348 346 346 347 345 344 345 345 345 342 340 339 338 343 347 346 345 346 347 344 345 346 343 348
342 340 341 346 347 347 347 347 348 348 348 347 347 345 344 345 345 346 345 341 341 338 342 347 347 346 346 347 348 347 348 345 342
343 342 342 344 347 347 347 347 347 347 347 346 346 345 345 346 346 347 346 342 342 340 341 345 347 347 347 347 348 349 347 346 344
341 342 343 344 346 347 347 346 347 347 347 347 346 346 346 346 346 347 347 345 342 343 342 344 344 344 346 348 349 349 349 347 346
341 343 344 345 345 346 347 347 347 347 347 347 347 347 347 347 347 347 347 347 345 342 343 343 342 343 344 349 349 349 349 350 350
337 343 345 345 345 345 346 347 347 347 348 348 347 347 347 347 347 347 347 347 346 345 343 343 344 342 345 347 349 350 351 352 350
329 340 345 346 346 344 346 347 347 347 348 348 348 348 348 347 347 347 347 347 347 347 344 339 340 342 341 348 349 348 350 351 352
327 336 343 346 346 344 345 346 347 347 348 348 348 348 348 347 346 346 346 347 346 346 343 338 335 337 339 339 348 350 348 348 347
331 339 342 344 345 345 346 346 347 347 347 347 347 348 348 347 347 346 345 346 346 343 340 337 335 333 334 336 337 338 340 344 345
330 339 342 343 345 346 346 346 347 346 347 347 348 348 348 348 348 347 343 341 343 341 338 336 334 333 333 332 333 334 334 337 341
336 337 340 342 345 347 347 347 347 347 347 348 348 349 349 349 349 349 348 347 345 343 342 341 338 335 334 334 334 333 334 335 337
341 343 345 346 346 348 348 348 348 348 348 348 348 349 349 349 350 350 350 350 349 348 348 348 347 346 347 346 345 344 342 342 343
347 343 347 349 349 349 349 349 349 349 349 349 349 349 349 350 350 350 350 351 351 351 352 353 354 355 355 355 356 356 356 357 356
355 348 343 346 350 351 351 351 351 350 350 350 349 349 350 350 350 350 351 351 351 352 352 353 354 355 355 356 357 357 358 359 359
355 353 345 343 342 341 343 352 353 353 352 353 352 352 351 352 351 351 352 352 352 353 354 355 355 356 357 357 358 359 359 360 361
343 353 356 355 351 350 349 349 351 352 355 355 354 355 355 355 355 355 354 354 354 355 356 357 357 358 358 359 359 359 360 361 362
338 343 349 353 354 354 354 354 351 349 349 348 348 348 351 353 354 355 356 357 358 358 358 357 358 356 356 357 359 361 361 359 359
325 333 341 345 349 351 350 350 351 352 352 349 345 343 343 343 344 345 345 347 353 356 358 357 356 356 358 360 362 362 362 362 361
324 328 332 340 343 344 345 346 345 342 342 344 347 347 345 345 344 343 343 344 345 350 355 357 359 360 362 363 364 363 361 361 361
319 319 320 327 338 342 343 342 342 342 343 343 340 338 343 348 352 357 358 357 359 360 360 360 360 362 362 362 360 360 358 359 359

GFSFLT1_850_thetae_042.txt.gz
Theta_e
348 348 348 347 347 347 346 346 344 342 342 342 342 343 343 344 345 344 343 344 341 335 332 333 339 341 342 344 346 343 347 344 342
347 348 348 348 348 348 347 347 347 346 343 342 343 343 343 344 345 345 343 344 343 341 335 335 339 343 344 344 346 347 345 346 342
345 346 346 346 347 347 347 348 347 347 348 346 345 345 344 345 346 344 343 344 344 343 341 338 339 343 345 345 346 347 347 347 344
342 344 344 344 344 346 346 347 347 347 348 348 347 346 346 345 346 345 344 345 345 345 342 340 338 341 344 346 346 347 347 348 346
339 341 343 342 342 343 345 346 347 347 347 347 347 347 347 346 346 345 344 345 346 346 343 341 338 339 340 342 345 347 348 348 348
331 336 341 341 341 342 344 345 346 346 346 347 347 347 347 346 346 345 345 345 346 346 346 342 340 339 338 338 341 346 348 348 349
325 334 339 341 341 342 344 345 346 346 346 346 346 347 347 346 346 346 346 346 346 346 346 345 342 339 338 335 338 342 344 345 348
325 326 330 338 341 343 344 345 346 346 346 346 346 347 347 347 347 346 346 346 346 346 346 346 344 341 337 337 336 336 339 340 341
337 329 329 330 337 342 344 345 345 345 346 346 346 347 347 347 347 347 347 346 346 346 345 345 345 343 338 334 334 333 332 335 337
344 339 329 328 335 341 343 344 344 344 345 346 346 347 347 347 347 347 346 346 345 344 344 344 343 342 338 335 331 330 331 332 334
344 341 333 329 337 338 342 343 345 345 345 346 346 346 346 347 347 347 347 346 345 343 343 342 342 341 338 336 333 331 331 332 333
343 348 335 339 341 340 342 343 344 345 345 346 346 346 346 346 347 348 348 347 346 344 343 341 341 341 340 338 337 336 335 336 336
346 346 341 339 340 342 344 344 345 345 345 345 346 346 346 347 348 348 348 348 348 348 348 347 347 346 346 347 347 349 350 351 351
346 350 344 345 343 344 345 345 346 346 346 346 346 346 347 347 348 348 349 349 350 350 350 350 351 352 353 354 354 355 355 356 357
347 348 347 347 348 347 347 347 347 347 347 347 347 348 348 348 349 349 349 350 350 351 352 352 353 354 354 354 355 355 356 357 358
345 350 350 352 349 348 349 349 349 349 349 349 349 349 349 349 350 350 350 351 351 351 352 352 353 354 354 355 355 355 356 357 359
333 341 348 349 349 352 353 351 350 351 352 351 351 352 352 352 353 354 354 354 353 353 354 354 354 355 356 355 355 355 356 359 360
318 327 338 345 347 347 346 348 353 354 354 353 351 350 352 354 355 355 356 356 355 355 356 356 356 357 357 357 356 355 360 360 358
315 315 320 337 342 343 343 344 343 344 346 349 349 348 346 345 344 345 347 348 349 351 351 354 357 359 359 359 360 361 360 359 358
313 313 313 315 339 343 342 342 342 342 340 338 337 339 344 347 347 345 345 346 349 351 350 356 359 359 359 362 365 362 356 354 357

GFSFLT1_850_thetae_045.txt.gz
Theta_e
349 350 349 349 347 347 346 344 343 345 345 344 342 342 340 340 341 343 343 343 342 342 341 338 337 337 339 341 344 344 342 345 345
348 349 349 349 348 347 346 344 342 343 344 343 342 341 341 340 340 342 343 344 343 343 343 340 334 334 339 341 343 345 345 344 345
346 348 349 349 349 348 346 343 343 343 343 342 341 341 341 341 341 342 343 344 344 343 344 342 335 334 340 343 344 345 346 347 346
342 346 348 349 349 349 348 347 345 345 345 344 343 342 342 342 343 343 343 344 345 343 344 344 340 337 337 343 343 345 346 347 347
335 342 345 347 349 350 350 348 347 346 346 346 346 345 343 343 344 344 344 345 345 344 344 345 342 340 336 341 342 344 346 347 347
337 340 343 346 346 348 349 348 348 347 346 347 346 346 346 346 344 344 345 345 346 344 344 345 345 341 338 337 339 342 345 346 347
327 335 341 344 344 344 346 347 347 347 346 346 347 346 346 347 347 346 346 345 345 345 345 345 346 341 338 337 335 336 339 344 345
328 327 334 341 342 341 342 346 346 346 347 345 345 346 346 346 347 347 347 346 346 345 345 345 346 345 341 338 337 333 333 337 340
339 339 334 336 342 340 341 342 343 343 345 344 345 345 346 346 346 346 347 346 346 346 345 346 346 346 346 342 335 333 330 330 333
343 344 346 344 335 339 337 339 342 343 343 344 345 345 346 346 346 346 346 346 346 346 346 346 346 346 346 345 340 333 331 331 332
341 343 345 346 340 335 336 337 344 344 346 345 344 345 346 345 345 345 346 346 346 346 346 345 344 345 345 343 341 336 334 333 334
339 342 345 348 344 331 337 342 342 344 345 345 345 345 345 345 345 345 346 346 346 346 346 345 343 343 343 341 338 336 333 335 336
342 344 351 347 335 334 340 342 344 344 345 345 344 344 345 345 345 345 345 346 346 345 344 343 343 342 340 339 338 337 336 337 339
342 343 348 343 344 341 342 343 343 344 346 343 343 345 345 346 345 345 345 346 347 347 347 346 344 343 342 343 344 345 346 347 347
340 342 346 349 347 345 343 342 342 343 344 344 345 345 345 346 346 346 347 348 348 349 349 349 349 349 350 350 351 353 354 355 355
338 343 344 348 350 348 347 345 344 344 345 345 345 346 346 346 347 347 348 349 349 350 350 351 351 351 352 352 353 354 354 355 356
327 342 343 343 346 347 347 346 347 347 346 346 346 346 347 348 348 349 349 350 350 351 351 352 353 355 355 355 354 355 355 355 356
313 317 341 343 344 346 348 351 353 353 351 350 349 348 349 349 350 350 350 351 354 353 352 356 354 357 355 355 355 355 355 355 355
315 311 313 333 342 343 345 345 346 347 351 356 355 355 354 352 352 352 352 353 353 353 354 354 354 355 356 357 358 357 357 356 358
318 315 311 311 315 342 342 342 341 341 342 342 346 354 355 356 354 354 353 355 355 355 354 355 355 356 358 358 358 359 359 358 357

GFSFLT1_850_thetae_048.txt.gz
Theta_e
348 349 350 350 349 347 348 349 348 348 347 347 341 336 333 336 332 344 345 346 348 347 345 345 347 350 348 341 344 344 348 348 350
344 348 349 350 351 350 348 349 349 349 348 343 346 346 334 336 333 340 348 347 347 348 349 346 348 349 351 349 343 344 351 350 352
343 347 349 350 351 351 350 349 349 350 350 349 345 348 343 342 336 340 342 348 347 349 349 346 347 345 348 348 348 341 344 352 352
338 345 348 349 350 351 351 350 349 350 350 351 350 347 348 345 344 342 339 344 342 343 344 345 343 342 340 349 351 348 343 348 352
337 341 346 348 349 350 351 351 350 350 350 350 350 345 343 343 341 340 347 340 342 343 344 344 344 343 340 343 349 352 351 347 351
336 338 342 346 347 349 350 351 351 350 350 349 349 350 345 345 346 344 342 341 343 344 344 344 344 345 343 340 345 351 350 347 350
332 334 338 342 346 347 350 350 352 351 351 350 349 350 350 348 342 344 343 343 344 344 345 345 344 344 345 341 337 347 351 350 345
332 332 335 341 343 346 349 350 352 352 352 351 350 350 351 350 343 343 343 344 344 344 345 345 345 345 345 344 345 346 347 349 350
333 336 336 333 339 343 347 350 352 354 352 352 352 351 351 351 344 344 345 346 345 345 345 345 345 345 345 346 348 345 341 340 348
338 341 342 344 341 339 344 347 351 352 352 352 352 352 351 351 347 345 345 346 346 346 346 345 344 345 345 346 344 339 335 333 335
344 344 345 346 345 345 340 344 346 351 352 352 352 352 349 348 348 346 346 346 346 347 346 346 346 345 345 345 344 339 337 334 334
344 345 346 347 348 347 348 342 345 349 351 354 353 351 348 346 345 346 346 346 347 346 347 347 346 345 345 344 342 338 334 337 340
341 344 346 348 351 352 350 350 344 347 351 352 353 351 344 344 345 345 346 346 346 346 346 346 347 346 345 342 340 338 335 337 341
339 342 345 350 352 352 351 349 343 347 351 351 349 354 355 354 349 346 346 346 345 345 346 348 345 349 346 340 337 337 335 336 339
341 345 347 352 349 346 344 341 345 350 351 351 354 354 355 353 347 349 353 347 347 347 347 346 345 344 344 349 339 337 336 335 339
331 343 349 353 352 350 349 350 349 353 354 354 356 356 355 355 352 346 354 351 352 355 352 357 356 357 356 356 357 350 344 346 348
321 333 343 348 352 355 354 353 353 354 356 355 358 358 359 360 359 358 358 358 359 359 359 359 359 359 359 359 359 361 362 353 353
318 320 335 343 346 348 349 351 354 357 358 357 358 359 360 361 360 359 361 361 360 360 359 360 359 360 360 361 361 362 363 364 362
321 318 320 331 340 342 343 343 346 349 356 359 354 356 357 358 358 361 360 361 359 360 360 360 360 360 362 362 362 363 363 360 361
320 319 320 321 324 334 336 337 339 344 347 354 361 357 357 356 357 358 359 359 356 354 356 360 359 359 360 363 361 361 358 357 357

GFSFLT1_850_thetae_051.txt.gz
Theta_e
349 349 348 348 348 348 349 349 348 348 350 349 347 334 329 329 332 342 340 344 346 346 345 345 348 347 352 354 355 353 352 351 352
348 349 350 349 349 349 349 350 349 349 350 350 347 348 334 328 328 331 341 340 344 351 347 346 346 351 353 352 352 353 353 351 348
345 347 349 350 350 350 350 350 351 351 350 351 348 347 343 337 332 328 335 344 348 349 348 347 349 348 350 352 352 352 351 351 352
341 344 347 349 350 351 351 350 351 352 351 351 352 350 349 344 340 342 332 345 346 350 351 351 347 352 351 352 352 352 352 350 353
337 339 345 348 349 352 352 352 351 352 351 352 353 352 352 349 344 342 346 339 347 348 349 351 354 353 352 350 351 353 353 353 349
335 337 340 347 349 350 352 353 352 352 352 351 351 353 353 352 350 344 344 342 341 346 344 343 351 354 353 351 349 352 354 353 353
332 336 338 343 347 348 350 352 353 352 352 351 350 352 352 353 352 351 347 345 338 340 340 342 344 348 352 350 351 351 352 354 353
333 333 338 340 345 347 350 351 353 353 353 352 351 350 351 351 352 349 349 345 346 338 341 342 344 344 348 348 352 351 350 353 354
334 335 336 338 341 345 349 351 353 355 353 353 352 351 350 351 351 350 346 341 341 340 342 343 344 345 345 347 352 349 347 348 351
332 334 335 338 336 342 344 348 353 353 355 353 353 353 352 352 353 350 348 343 341 341 343 344 344 345 345 345 346 349 347 345 346
345 344 341 343 343 342 341 344 347 352 355 356 355 354 356 353 354 353 350 351 345 343 343 344 344 344 344 345 345 343 343 342 342
346 346 347 347 347 347 346 343 344 348 353 358 356 357 355 357 355 357 354 352 350 345 345 345 345 345 345 344 343 344 341 343 344
346 345 346 348 349 349 349 350 346 346 351 354 357 357 357 358 357 358 356 351 350 349 346 346 345 345 345 345 344 344 344 342 344
340 343 346 348 351 351 352 353 351 345 348 353 355 357 359 359 358 358 356 355 353 350 347 356 350 355 352 349 346 345 342 340 342
335 338 344 347 355 355 355 355 355 352 347 350 354 357 358 359 360 359 360 359 358 358 359 357 359 355 359 359 350 345 341 338 337
330 340 345 350 356 356 350 349 355 354 346 354 354 356 358 358 360 360 359 360 360 361 359 360 359 361 359 358 356 358 353 341 335
327 336 346 351 353 359 357 354 349 347 355 355 356 358 358 359 360 360 359 363 364 361 360 361 359 358 357 355 352 350 355 354 343
323 327 336 341 346 349 354 356 357 356 359 357 358 356 359 360 360 361 361 363 362 361 360 359 358 354 351 349 350 350 352 356 361
320 322 326 330 335 341 344 350 356 358 358 358 359 360 360 361 360 362 361 362 361 360 360 360 360 358 358 359 357 358 359 360 364
317 320 322 324 326 330 337 344 350 354 357 357 360 360 362 361 361 361 361 360 360 361 360 359 360 360 360 360 363 362 362 363 362

GFSFLT1_850_thetae_054.txt.gz
Theta_e
348 350 349 349 348 348 348 347 347 348 348 346 345 339 336 342 341 340 344 347 344 348 347 349 349 347 343 342 347 348 348 348 347
348 348 350 349 349 348 348 348 347 349 349 347 346 338 331 334 337 334 343 342 347 345 346 347 346 349 348 346 350 351 347 348 348
342 342 350 350 349 349 350 349 349 349 351 350 348 346 334 326 331 329 330 337 340 346 346 346 353 347 346 344 346 351 351 350 349
340 344 347 340 349 350 350 351 351 350 351 353 351 350 347 336 325 328 327 335 335 341 349 350 346 352 349 348 348 351 349 347 353
345 346 344 346 347 348 351 352 352 352 351 353 354 352 351 347 337 327 325 326 335 340 344 348 348 346 351 351 349 350 350 347 350
334 346 347 338 343 347 351 351 352 353 353 352 355 356 354 353 348 342 334 326 327 339 339 342 346 349 345 348 345 346 349 349 344
332 334 341 345 350 351 353 352 352 353 353 353 353 356 355 354 353 349 341 340 330 335 337 337 342 344 344 344 343 341 346 351 351
334 335 333 337 341 347 355 354 353 353 353 353 353 353 354 355 355 353 352 347 343 334 333 333 337 340 344 344 344 343 342 345 351
329 331 336 337 337 349 353 354 354 354 353 354 353 352 353 353 355 356 353 351 350 346 337 335 336 339 342 346 345 345 349 347 345
325 327 334 336 338 341 345 355 355 355 354 354 354 352 353 352 354 356 354 354 352 352 349 338 334 336 340 344 345 345 349 349 349
322 323 336 346 338 342 345 347 345 357 357 355 355 353 353 353 353 354 355 354 355 353 352 345 334 335 339 343 345 345 345 348 348
319 323 331 348 348 347 345 345 347 355 357 357 355 356 353 355 352 352 353 353 352 352 352 349 340 337 340 342 344 344 344 345 348
320 330 346 347 348 349 348 340 345 346 355 357 357 355 357 355 355 353 353 352 351 351 350 344 340 341 341 343 343 343 344 344 346
333 339 339 347 348 350 339 338 346 348 348 354 357 357 357 358 358 355 357 356 355 354 354 356 352 348 347 347 344 343 343 344 344
336 339 340 343 347 347 347 355 355 348 348 349 354 360 358 360 359 360 359 360 359 359 358 359 360 356 358 357 353 346 344 344 344
334 332 335 341 344 349 361 361 362 355 349 345 352 355 360 358 361 361 362 361 362 361 360 361 360 361 360 360 361 355 351 349 348
327 331 337 342 347 350 343 346 356 362 353 352 354 357 358 358 361 363 362 361 362 361 361 360 362 362 362 361 361 362 361 357 353
325 328 334 338 342 346 349 353 354 357 356 360 357 359 358 359 360 363 363 361 364 361 362 360 360 362 360 363 361 357 359 359 355
323 325 328 332 339 342 347 351 355 357 357 362 360 362 361 361 360 363 362 361 364 362 361 362 363 359 362 359 359 357 355 349 350
319 321 322 326 329 335 339 346 351 356 359 361 364 364 362 361 361 362 362 362 363 363 364 362 360 361 360 357 354 351 350 354 351

GFSFLT1_850_thetae_057.txt.gz
Theta_e
349 349 348 349 348 346 346 346 345 343 343 342 339 335 341 338 338 342 345 346 346 347 347 344 349 345 340 338 336 344 342 344 335
345 344 346 348 349 347 347 346 346 345 343 343 342 332 333 339 337 339 344 346 345 349 350 348 351 349 347 345 340 338 341 344 341
348 346 348 349 349 349 348 347 347 346 345 344 344 341 330 332 335 333 340 343 345 343 346 347 347 351 349 347 346 339 344 345 346
349 346 344 344 341 349 350 348 347 348 347 346 346 345 341 331 334 334 332 342 342 343 341 344 345 348 349 348 346 339 339 346 345
348 342 347 344 335 337 349 350 348 348 348 348 347 346 346 342 329 331 331 330 340 340 344 342 348 350 348 349 348 347 340 339 344
346 346 347 342 336 338 349 350 350 349 349 350 350 349 348 347 345 330 328 328 328 333 333 338 350 354 349 349 349 345 338 337 338
336 346 344 339 341 342 348 347 351 350 351 351 352 352 351 349 348 346 333 325 326 327 327 331 343 350 348 345 346 345 341 338 335
324 327 344 343 342 340 341 342 349 352 352 352 352 354 353 352 350 350 348 338 328 326 326 326 330 335 346 344 341 338 340 341 336
318 319 321 322 327 337 341 342 347 352 353 353 352 354 355 354 354 352 351 348 340 333 328 326 327 332 337 344 343 341 340 342 342
318 319 318 328 338 345 343 344 340 340 352 354 353 353 355 355 354 354 353 352 349 344 340 336 333 332 332 335 339 339 338 341 343
320 320 327 327 344 348 347 342 346 342 349 354 354 354 354 354 354 353 353 353 352 352 349 345 342 339 336 332 332 336 337 340 344
320 320 319 333 339 346 348 340 343 347 351 350 354 354 353 353 352 353 353 353 352 352 352 350 348 346 343 339 333 334 337 341 344
315 315 315 332 334 327 327 345 349 341 339 339 353 356 354 353 352 352 352 351 352 352 352 351 351 349 346 343 335 332 336 340 343
312 313 314 328 332 326 326 338 350 349 340 342 347 353 357 354 353 353 352 352 352 352 351 351 351 350 348 346 340 337 338 340 343
310 310 313 332 326 328 332 341 345 356 357 350 349 359 358 357 354 354 355 353 352 352 352 352 352 352 351 347 344 341 341 342 344
311 328 325 331 323 327 333 332 334 347 349 351 355 348 358 358 359 357 356 356 354 354 354 354 353 354 353 351 348 346 343 342 343
324 331 332 331 327 331 333 333 340 339 333 345 354 356 350 360 358 359 359 359 357 356 356 356 356 356 356 356 356 355 349 347 347
325 327 329 332 334 335 336 340 343 339 333 331 346 356 356 354 362 359 360 361 360 360 359 358 357 358 358 360 359 355 354 349 347
325 326 328 330 333 335 337 340 343 346 345 338 340 353 358 360 357 361 360 362 362 362 362 361 360 359 359 358 359 359 358 359 357
322 322 323 326 330 332 334 337 341 345 349 351 354 354 351 358 361 362 361 362 362 362 363 364 362 360 361 360 360 360 362 362 358

GFSFLT1_850_thetae_060.txt.gz
Theta_e
344 346 346 347 346 344 344 344 343 343 342 342 341 336 342 337 344 346 347 348 344 344 347 347 346 342 346 338 338 346 343 340 339
340 341 343 345 347 345 344 344 344 344 343 343 342 341 335 340 336 345 346 346 346 344 346 344 345 347 341 339 337 335 340 340 333
341 343 344 348 347 345 345 345 344 344 344 344 343 342 340 335 337 337 345 345 346 345 347 350 346 349 348 345 343 342 338 340 342
344 347 345 348 348 346 345 345 345 345 345 344 343 343 342 340 335 335 338 342 345 347 347 350 348 348 349 349 347 345 341 340 340
346 347 347 348 348 348 346 346 346 346 346 345 345 344 343 343 338 333 333 335 343 345 347 346 345 346 347 349 348 346 343 335 342
347 346 347 348 348 345 345 347 347 347 347 347 346 345 345 344 344 338 331 333 335 343 344 346 344 344 345 349 349 346 344 338 334
346 346 347 346 343 339 339 339 346 347 347 347 347 346 346 346 345 345 342 330 331 333 342 343 345 346 345 348 348 346 346 340 334
325 333 345 342 335 333 336 339 337 346 348 348 348 347 347 347 347 346 346 346 336 328 331 339 341 338 345 351 351 348 346 344 338
322 325 323 333 342 346 346 344 341 342 346 349 349 349 349 348 348 348 348 348 347 344 328 329 330 335 332 344 348 351 347 342 336
321 320 318 317 330 330 333 344 341 341 342 345 350 350 351 351 351 350 350 350 349 348 346 333 328 329 329 331 340 345 345 342 340
315 315 314 314 314 336 335 339 342 342 344 344 350 351 352 353 353 352 352 352 351 350 349 346 337 329 328 328 329 332 333 335 340
312 312 311 312 312 317 336 331 328 344 343 345 345 351 352 353 355 354 354 353 352 351 351 348 345 339 336 330 328 329 332 334 338
311 311 311 310 311 312 334 333 331 341 341 340 349 349 351 353 353 355 355 353 353 352 352 351 348 347 344 342 340 337 335 335 335
310 310 310 310 310 315 319 327 337 337 343 340 339 337 350 352 354 353 355 354 353 352 352 352 351 349 348 345 344 344 341 339 338
309 309 309 309 311 326 323 326 322 334 339 343 339 339 339 345 347 351 352 355 354 353 353 352 352 352 351 349 346 343 341 339 339
309 309 309 309 309 317 328 331 324 324 324 338 338 337 344 346 343 354 354 355 355 354 353 353 353 353 352 351 350 348 342 339 337
309 310 309 309 310 311 330 329 329 328 326 326 334 336 333 345 352 355 356 355 355 354 353 353 353 353 352 353 352 351 347 343 342
312 313 313 313 313 316 326 327 329 332 333 336 343 337 336 338 349 352 355 357 356 356 355 355 354 354 353 353 353 352 350 349 345
312 313 317 320 322 326 327 328 330 332 335 335 342 341 338 338 349 350 352 357 358 358 357 357 357 356 356 356 356 355 355 355 353
317 316 320 322 325 326 326 328 331 334 334 336 338 341 345 343 345 353 360 357 360 359 359 359 359 359 358 358 358 359 358 358 358

GFSFLT1_850_thetae_063.txt.gz
Theta_e
346 341 342 346 347 345 345 345 342 341 341 341 341 341 339 337 336 342 342 344 348 346 347 346 346 345 343 347 340 343 339 337 340
347 346 344 345 346 345 345 345 342 341 341 341 341 342 341 336 336 343 343 344 348 347 345 347 347 347 343 346 344 341 346 342 338
347 347 348 346 346 345 345 346 343 342 342 342 342 342 342 340 334 335 342 345 346 347 344 345 346 347 346 342 346 341 340 344 340
345 344 345 344 345 345 345 345 344 343 342 342 342 342 343 342 339 333 335 342 345 346 345 344 346 346 347 348 346 344 342 341 342
341 341 341 344 345 346 344 343 344 344 343 343 343 343 343 343 342 340 332 333 342 345 345 344 346 350 348 348 348 348 346 345 343
346 346 347 346 347 346 345 344 344 344 344 344 343 343 343 343 342 342 342 332 332 342 345 344 346 346 347 346 346 348 348 347 343
344 342 338 343 337 337 339 340 339 343 345 345 345 344 344 344 343 343 343 343 332 330 335 341 344 346 346 345 345 345 347 347 345
323 322 318 327 338 334 336 334 344 339 344 346 346 346 345 345 344 344 344 343 344 335 328 331 341 344 345 345 345 344 345 346 346
316 316 313 313 322 336 337 335 344 343 339 343 347 347 347 347 347 346 345 345 345 345 343 329 329 335 342 343 344 345 344 347 347
313 312 312 311 311 315 330 335 335 342 343 338 345 347 348 348 347 347 347 347 346 346 346 346 343 330 329 336 341 341 338 343 347
311 311 311 310 310 311 314 326 339 339 343 342 341 346 347 349 349 349 349 348 348 348 348 348 347 347 342 328 327 330 336 333 339
310 310 311 311 310 310 310 316 323 333 345 344 345 343 346 350 351 350 351 351 350 350 351 350 350 349 348 346 335 326 325 327 330
310 311 311 311 311 311 311 312 315 321 334 344 346 344 345 346 352 353 352 352 352 353 353 353 352 351 349 348 345 338 330 326 326
308 309 311 311 311 311 311 310 317 319 322 323 338 344 340 344 345 353 355 354 353 353 354 354 354 353 352 350 345 344 339 335 336
309 309 309 310 310 311 311 311 310 318 317 321 325 332 339 340 340 342 351 352 353 353 353 354 354 354 353 352 350 345 343 343 342
309 309 309 309 309 310 310 310 310 311 319 323 319 321 328 337 334 344 343 343 349 345 350 352 353 354 354 353 352 350 348 345 344
309 309 310 311 310 310 310 310 310 310 316 326 323 321 324 329 334 334 345 349 351 353 354 354 353 354 354 354 353 351 351 350 349
308 309 310 311 313 311 310 310 310 309 312 326 325 322 323 321 330 335 339 347 348 350 354 354 354 354 355 354 353 352 352 352 351
307 308 311 314 313 312 312 315 311 312 312 322 325 325 321 323 325 336 335 340 344 347 348 352 355 355 355 355 354 354 353 353 353
306 307 310 312 315 315 317 319 322 326 324 323 319 326 327 322 329 325 328 333 345 348 347 350 353 355 355 355 355 355 355 355 355

GFSFLT1_850_thetae_066.txt.gz
Theta_e
348 349 349 346 346 345 345 344 344 344 344 342 341 339 340 340 339 341 339 340 341 344 345 345 344 345 344 343 341 342 345 341 337
345 347 349 348 347 346 345 345 344 343 345 343 342 340 340 340 339 339 336 337 341 343 343 344 347 346 345 342 346 344 342 342 337
342 346 346 348 347 347 346 345 343 344 346 344 342 340 340 340 340 338 335 337 341 343 344 343 344 346 347 345 343 344 340 343 345
337 345 346 344 342 344 346 346 345 344 345 345 343 341 341 341 341 338 337 336 340 341 345 344 343 344 346 346 346 343 343 341 340
342 342 345 346 345 345 342 344 344 344 344 344 342 341 341 341 342 341 337 335 334 340 344 345 343 344 345 346 347 347 347 346 345
330 338 340 343 344 344 344 343 342 343 344 343 343 341 341 341 342 342 341 337 332 332 338 343 344 343 345 348 348 347 347 348 348
318 323 332 335 338 337 340 341 343 343 343 343 344 343 343 342 342 342 342 342 340 333 332 337 342 342 343 344 346 345 345 344 348
312 312 312 321 328 335 336 338 343 342 342 344 344 344 344 344 343 343 343 342 342 342 337 331 333 340 341 342 343 342 343 343 345
312 311 311 310 312 324 330 337 339 341 342 340 342 344 345 345 345 345 344 343 343 343 342 341 332 331 334 337 341 342 342 340 342
310 310 310 311 311 310 316 328 333 333 342 343 340 343 345 346 346 346 346 346 345 344 344 343 343 337 329 329 332 336 339 340 342
310 309 310 311 311 311 311 312 318 323 333 344 343 337 340 345 346 346 347 347 347 347 346 345 345 344 344 337 329 328 330 335 337
309 309 309 310 310 311 311 311 311 317 323 340 345 342 342 345 347 348 348 348 348 348 348 347 347 347 346 346 346 344 337 329 330
309 308 309 310 311 311 311 311 311 313 315 321 325 342 345 344 346 349 350 350 350 349 349 350 350 350 349 349 349 349 347 346 341
307 307 308 309 310 310 310 311 311 311 312 314 318 322 338 344 342 346 347 348 349 351 351 351 351 351 352 352 352 351 348 346 347
305 306 308 309 310 310 310 310 310 311 311 310 319 318 317 324 339 339 341 350 350 352 352 352 353 352 352 353 352 352 352 349 344
305 306 309 309 310 310 310 310 310 310 311 311 310 315 315 318 322 333 338 343 351 350 352 353 351 352 350 351 352 352 352 352 350
305 306 308 308 308 310 310 310 310 310 310 310 310 311 317 316 317 322 332 338 344 345 342 345 350 349 350 352 352 353 352 352 352
304 305 306 307 307 307 309 311 311 310 310 311 311 314 319 321 318 318 322 333 342 350 348 346 350 351 351 352 352 353 353 352 353
303 304 305 306 306 306 308 311 314 312 311 311 315 320 320 321 322 319 319 321 328 340 350 351 352 351 353 353 352 354 354 352 352
302 303 304 304 304 305 308 310 314 313 312 315 319 320 322 323 325 324 321 321 321 323 331 346 350 349 352 351 351 353 354 354 353

GFSFLT1_850_thetae_069.txt.gz
Theta_e
347 350 349 347 346 346 346 344 344 344 344 344 342 342 341 339 341 344 343 340 340 341 343 343 343 344 343 341 342 344 344 341 337
345 349 350 349 347 346 346 345 345 344 344 344 344 342 341 340 339 342 343 342 340 342 342 344 346 345 344 342 344 345 341 344 339
341 345 349 349 348 346 346 346 345 345 344 343 343 344 342 341 339 340 341 341 340 339 342 343 344 346 347 345 344 344 344 342 343
344 346 346 348 348 347 346 346 345 345 344 343 343 345 344 342 340 340 340 339 339 337 341 344 342 343 344 346 345 342 344 342 339
329 336 340 345 347 345 346 346 346 346 345 344 344 344 345 343 341 340 341 340 338 336 341 341 343 342 343 345 345 346 346 344 344
317 320 326 331 342 342 343 345 345 344 344 345 344 344 344 344 343 341 341 341 339 337 339 342 343 343 343 343 345 347 346 347 346
313 313 316 320 328 334 341 342 342 343 343 344 345 344 344 344 343 342 341 341 341 340 336 337 341 343 343 343 345 347 347 347 346
314 311 311 312 313 316 325 337 341 342 342 343 343 346 345 343 344 343 341 341 341 342 341 338 334 337 342 343 343 344 346 345 344
313 313 312 311 312 311 312 318 330 334 338 342 342 344 344 346 344 344 344 343 342 342 342 342 341 336 334 339 343 340 340 341 341
312 311 311 311 311 311 311 311 312 320 330 341 344 342 340 343 345 344 345 345 344 344 343 343 342 342 341 335 333 339 340 338 340
311 310 310 310 310 311 312 311 311 312 316 327 340 345 341 340 342 344 345 345 345 345 345 345 345 344 343 342 341 332 331 334 338
308 308 308 308 309 310 311 311 311 311 313 314 330 336 342 340 343 342 344 345 346 346 346 346 346 346 345 344 343 344 341 331 330
307 307 307 308 309 309 310 311 311 311 311 312 313 323 330 345 344 345 347 346 347 346 347 347 348 348 347 347 346 346 345 345 343
306 306 306 307 308 310 310 310 310 310 311 311 312 312 326 321 334 340 343 346 348 349 349 349 349 349 349 349 349 349 349 348 347
306 305 306 307 309 309 310 310 310 310 310 310 310 312 311 319 320 332 339 343 345 347 348 348 350 351 351 351 351 351 351 351 350
305 305 306 307 308 309 310 310 310 310 310 310 310 310 312 311 319 322 320 327 337 340 347 351 349 351 352 351 352 351 352 352 351
304 304 304 305 307 308 308 308 309 309 310 311 311 310 310 311 311 319 321 322 327 334 343 347 352 351 352 351 352 352 351 352 351
303 302 302 302 305 306 307 308 308 308 308 309 312 312 311 311 311 312 321 321 321 326 337 345 347 349 351 351 352 353 350 351 351
303 303 302 302 303 304 304 305 306 306 307 308 313 314 313 313 312 312 319 323 319 319 320 327 343 350 348 350 349 351 352 352 352
303 303 302 302 303 303 302 303 305 305 307 308 312 317 317 319 316 314 321 323 325 321 318 320 323 331 344 349 349 351 352 352 353

GFSFLT1_850_thetae_072.txt.gz
Theta_e
341 352 351 350 349 348 348 347 348 349 349 343 343 342 341 342 340 348 349 349 347 349 349 350 351 344 347 349 342 345 340 346 345
346 351 351 351 349 349 348 349 349 350 350 344 344 344 343 342 341 340 348 349 350 348 349 350 353 350 350 348 345 347 344 350 342
347 349 351 351 351 350 349 349 349 350 350 350 344 344 345 343 342 341 340 347 350 349 349 349 351 353 353 350 347 342 343 349 347
335 340 347 350 351 350 350 350 350 350 350 351 351 347 347 346 346 342 340 340 346 349 349 350 351 344 346 351 350 346 343 350 351
323 326 328 342 347 349 349 349 350 350 350 350 351 351 350 346 345 348 349 341 340 343 348 349 351 343 343 344 352 351 343 345 350
318 318 319 328 339 343 345 346 348 349 349 349 349 350 350 345 345 345 348 346 341 341 341 342 350 352 345 342 346 352 346 345 351
315 315 315 314 318 328 334 342 346 346 347 348 349 350 350 350 346 344 348 348 342 341 341 340 338 348 352 348 350 350 347 347 348
315 314 314 314 312 312 314 325 335 340 340 343 345 348 350 350 350 350 348 349 349 342 341 342 339 337 345 350 352 350 352 353 353
318 316 315 314 313 312 312 311 314 327 334 341 342 344 345 349 351 352 351 347 343 346 346 341 342 342 339 340 345 347 348 350 354
317 316 315 315 313 312 312 312 312 312 321 334 340 344 344 343 347 350 354 353 351 345 343 345 343 342 342 342 339 338 343 345 345
314 313 313 313 313 314 314 312 312 312 312 313 329 342 344 345 343 346 349 351 352 352 351 350 350 348 343 343 343 342 340 334 336
312 312 312 312 312 313 315 316 314 312 312 312 311 317 335 341 344 345 345 348 348 349 352 352 351 351 350 345 344 344 343 343 340
311 311 311 311 311 312 314 316 316 316 317 312 311 312 314 328 336 343 342 344 346 348 349 349 351 353 352 351 346 345 345 344 343
310 310 310 310 311 312 313 314 315 316 317 318 312 311 312 314 323 329 339 342 343 346 350 349 349 349 353 353 351 348 346 346 345
309 309 309 309 310 311 312 313 314 315 316 316 313 311 311 311 312 314 322 331 340 343 345 347 350 350 351 354 353 352 348 348 348
308 308 307 307 307 307 308 310 312 313 314 314 314 313 311 311 311 312 314 320 322 325 343 345 347 349 351 354 356 355 353 350 350
306 307 306 306 305 306 306 308 309 311 312 312 313 313 314 311 311 312 312 318 328 331 332 344 347 349 349 351 355 355 357 356 354
307 307 307 306 306 306 306 306 307 308 308 309 310 312 314 316 317 313 314 321 326 330 328 338 341 347 350 352 353 354 355 356 357
306 306 306 306 306 305 304 305 306 307 306 306 308 310 312 314 317 319 320 322 322 325 323 318 323 323 336 348 351 353 353 354 352
306 306 305 306 305 303 304 303 303 304 305 304 306 307 309 312 314 318 321 321 322 323 325 324 318 319 320 324 332 346 348 348 350

GFSFLT1_850_thetae_075.txt.gz
Theta_e
351 352 350 349 349 349 349 347 345 346 351 354 354 352 353 353 352 350 348 350 348 348 349 349 348 342 347 350 350 351 350 348 343
342 352 351 351 349 350 348 348 346 345 349 354 355 354 355 354 353 348 348 349 348 350 350 350 354 352 351 351 351 352 351 349 343
346 347 348 350 350 350 348 348 348 346 348 354 355 354 355 355 355 353 345 350 351 349 349 350 351 353 352 352 351 352 349 349 349
332 332 334 341 347 350 350 350 350 349 349 351 354 355 354 355 355 355 355 352 352 351 350 352 352 355 354 353 354 352 351 350 352
325 323 324 327 341 347 349 349 350 350 350 350 351 353 354 354 355 355 355 355 353 353 352 351 350 353 353 355 353 354 352 352 349
320 320 321 329 336 343 346 347 348 349 350 351 350 351 353 354 354 355 354 354 355 353 352 350 350 353 352 353 353 354 355 352 352
320 319 317 318 326 329 336 340 346 347 348 348 350 350 351 353 354 354 354 354 354 354 353 345 348 350 353 354 352 352 354 352 351
318 317 317 316 316 314 320 326 336 344 343 344 347 349 351 352 353 353 351 354 354 354 354 352 344 344 351 352 352 350 351 352 353
319 318 318 316 316 316 314 314 315 325 337 341 343 345 347 351 352 352 354 354 355 356 356 354 352 347 346 348 348 347 348 350 352
320 319 318 318 317 317 318 318 316 316 317 327 339 342 342 345 348 351 352 353 353 353 354 355 354 352 352 348 343 344 344 347 348
318 318 317 317 317 317 317 318 317 316 317 313 314 329 342 346 345 346 348 349 351 352 353 352 352 354 354 352 351 346 344 341 340
316 316 316 316 316 316 317 319 319 318 318 315 314 312 317 337 344 347 347 347 350 351 350 351 353 353 352 353 352 352 350 347 344
315 315 315 315 315 315 316 318 318 319 320 320 322 318 312 312 321 338 342 343 348 350 350 354 354 353 353 352 352 353 352 349 349
313 314 314 313 314 314 316 316 317 318 319 320 321 320 319 315 312 313 321 332 338 343 347 349 349 351 348 351 353 353 351 351 351
312 312 312 312 312 312 312 313 314 316 317 318 318 318 317 315 314 313 312 316 319 330 340 346 348 348 348 349 351 353 353 353 352
311 310 311 310 311 311 311 311 312 313 314 315 316 317 317 317 314 314 315 312 312 317 329 332 335 346 345 346 350 351 355 354 353
310 310 310 310 310 310 310 310 311 311 311 312 313 313 314 315 316 316 316 319 313 314 325 332 335 344 345 349 347 349 354 355 355
310 309 309 309 308 309 309 309 309 309 310 310 310 311 311 313 315 317 318 320 322 322 323 329 333 336 341 344 349 353 352 351 355
309 309 309 308 308 308 309 308 308 308 308 307 308 308 309 311 312 314 317 319 322 322 322 321 317 322 321 327 332 343 349 349 351
309 309 308 307 306 306 306 306 306 306 305 305 305 306 307 308 309 311 314 316 319 323 324 324 322 317 316 318 317 318 321 326 345

GFSFLT1_850_thetae_078.txt.gz
Theta_e
353 352 351 349 348 349 350 346 346 347 347 345 345 346 341 340 342 344 350 345 352 350 345 349 351 345 340 341 342 345 342 349 341
348 348 349 350 350 350 348 347 346 347 344 342 342 343 348 345 343 340 348 347 348 348 349 349 350 348 342 342 349 346 347 341 344
336 337 345 348 349 351 347 349 345 348 346 344 342 349 349 350 347 345 347 347 350 351 351 349 344 348 346 348 351 349 347 346 345
327 330 334 347 347 348 349 349 348 349 351 348 349 353 355 354 351 349 343 344 344 348 349 348 350 344 343 349 350 347 346 344 352
323 322 328 333 341 346 347 348 348 349 348 353 349 355 355 354 355 353 353 348 345 346 341 343 351 347 350 349 350 351 347 342 353
324 321 323 324 333 342 346 347 347 348 347 348 350 355 354 354 354 354 356 355 352 351 351 343 339 342 349 346 349 348 350 348 343
322 322 320 319 322 330 339 344 344 346 346 342 345 350 353 355 354 355 354 353 354 353 352 352 347 344 347 347 347 348 349 349 348
322 320 320 321 319 320 331 337 337 342 344 345 345 347 348 349 350 353 355 354 353 353 353 353 351 347 345 350 349 352 348 348 346
322 321 320 319 320 320 318 318 325 331 340 343 343 343 345 342 341 347 350 351 352 353 353 353 354 352 347 344 347 349 351 348 349
322 321 321 320 319 320 321 320 317 319 321 330 342 342 341 343 345 337 339 351 353 352 353 353 353 353 353 350 347 344 344 348 349
320 320 320 319 319 319 320 321 317 315 319 316 317 323 328 339 344 345 348 350 352 353 352 352 353 355 355 353 352 349 345 345 345
318 318 318 318 318 318 320 321 321 320 322 321 323 319 314 321 334 342 345 345 349 349 350 351 352 351 352 353 354 354 353 350 347
317 317 317 317 317 318 319 319 319 320 322 322 324 321 318 315 314 316 332 341 344 346 348 350 351 351 352 352 352 352 352 353 352
316 316 316 315 315 316 316 316 316 318 320 321 321 320 318 316 315 314 314 315 326 338 341 343 347 349 350 352 352 353 353 352 352
314 314 314 313 314 314 314 314 315 316 317 318 318 317 317 317 315 314 314 314 314 313 315 326 338 342 346 348 348 348 350 350 352
313 313 313 313 313 313 313 313 313 314 314 313 313 313 313 312 312 313 313 313 316 316 314 314 317 332 337 338 342 346 345 349 349
313 312 312 312 311 311 312 312 312 311 311 311 311 311 312 313 313 311 311 313 315 318 321 317 316 327 333 339 342 347 352 351 350
312 311 311 310 310 310 310 311 310 310 310 309 308 309 309 310 311 312 313 315 316 318 320 322 322 323 331 335 337 341 344 349 350
311 311 311 310 310 309 309 309 309 308 308 307 306 306 307 308 308 310 310 312 313 315 318 321 323 323 321 319 322 326 324 323 325
311 311 311 310 309 308 308 307 307 306 305 305 305 304 305 305 306 307 308 309 310 313 314 317 319 324 325 324 323 318 317 326 326

GFSFLT1_850_thetae_081.txt.gz
Theta_e
349 351 350 349 347 349 349 348 347 345 342 342 338 339 346 344 346 344 349 347 343 348 348 348 348 346 345 343 342 347 340 340 337
344 348 348 350 348 348 349 347 346 343 342 339 337 339 338 345 344 344 346 345 347 346 346 347 350 349 346 341 339 342 343 343 335
334 339 347 349 348 348 349 349 346 344 344 341 339 339 340 338 339 339 342 347 347 347 347 348 348 347 338 342 347 346 344 340 340
329 334 337 346 348 347 350 348 348 348 347 345 340 340 340 341 343 344 343 344 349 349 348 347 346 341 341 341 347 349 346 345 345
324 326 332 339 346 344 343 347 346 347 349 348 346 343 342 342 345 344 342 342 340 348 349 348 347 343 341 344 346 348 347 343 342
322 324 330 337 341 345 346 346 345 344 347 346 348 349 347 347 346 347 345 344 343 341 344 343 341 346 347 348 347 346 351 351 343
322 321 324 328 340 341 342 345 346 345 345 343 345 342 345 348 348 348 346 346 352 350 346 348 342 338 341 339 342 347 350 346 347
321 321 320 320 325 334 337 341 343 343 343 335 340 343 339 344 350 349 348 348 349 350 353 350 349 347 345 345 348 346 345 346 344
319 320 321 321 321 318 321 330 331 336 343 342 341 339 343 343 342 335 338 344 346 350 351 352 352 349 351 346 345 343 346 345 347
322 320 319 319 320 321 320 317 321 320 320 326 339 342 342 340 341 340 336 338 341 346 349 351 353 352 352 349 348 344 342 349 352
320 319 319 319 320 321 321 320 319 321 322 323 321 320 325 336 340 343 342 341 337 344 345 348 352 352 352 352 353 353 349 345 347
319 318 318 318 318 319 320 320 321 322 322 324 323 321 319 317 324 333 340 343 345 345 345 347 350 352 352 352 354 353 354 353 346
317 317 317 317 317 319 319 319 319 320 321 321 322 321 318 316 315 315 316 322 335 341 341 344 347 349 350 351 351 350 351 351 352
317 316 315 315 315 315 315 314 314 315 318 319 320 319 318 316 315 314 314 315 317 318 322 327 337 342 345 347 349 350 351 351 351
315 314 313 313 313 313 313 313 312 313 313 314 314 313 313 312 312 312 312 313 313 314 315 315 316 318 327 337 340 345 347 348 348
313 313 313 313 313 313 313 312 312 311 310 310 310 310 310 310 310 310 311 311 311 311 313 314 316 317 317 323 332 335 340 343 342
313 312 312 312 310 311 311 311 311 310 309 308 307 307 307 308 308 309 310 311 312 314 315 317 320 323 323 324 333 341 345 344 345
312 312 311 311 310 309 310 309 308 308 308 307 306 305 306 306 307 307 307 308 309 310 313 317 319 321 322 323 322 327 327 330 334
312 311 311 311 309 309 308 308 307 306 305 305 304 304 305 305 305 306 306 306 307 308 308 309 313 317 319 321 322 323 322 323 321
312 310 311 310 308 308 308 306 305 305 304 302 301 302 304 304 305 305 305 305 305 306 308 308 309 310 313 317 320 323 324 324 324

GFSFLT1_850_thetae_084.txt.gz
Theta_e
343 347 347 347 347 347 346 346 346 346 346 346 343 339 345 347 347 345 345 343 347 345 347 345 347 346 345 343 341 339 342 340 339
344 345 349 349 348 347 347 347 347 347 346 345 341 337 341 346 345 345 344 347 346 344 347 346 346 347 348 341 341 343 343 340 335
337 344 347 348 347 348 348 348 347 347 347 344 337 332 333 343 344 343 343 345 344 347 347 347 346 348 348 347 339 342 343 340 342
334 339 344 346 347 348 348 349 347 347 347 344 343 339 339 339 339 343 338 342 344 347 347 346 348 347 347 339 342 346 346 345 338
333 336 341 344 344 346 347 347 347 347 346 344 344 341 339 340 338 340 340 341 341 347 347 347 347 346 344 340 342 347 347 344 344
329 333 337 340 342 343 345 346 347 347 346 346 345 344 341 342 341 342 343 344 344 345 344 347 348 346 345 341 342 344 346 345 343
328 331 335 339 341 342 343 344 345 345 344 342 343 341 344 344 343 343 344 345 343 342 342 341 343 341 338 342 345 348 347 346 347
322 324 327 331 337 341 341 342 342 343 341 335 334 341 338 340 339 343 343 344 345 346 346 346 345 345 343 341 345 344 348 347 349
321 321 320 320 322 323 329 335 341 342 342 341 339 340 343 341 339 340 341 342 342 344 345 346 347 346 346 350 346 345 347 349 346
320 321 321 321 320 320 322 321 322 328 334 339 340 340 341 341 339 339 340 339 336 339 341 344 347 348 347 349 348 349 346 345 347
319 319 320 321 321 321 321 322 322 323 323 320 325 329 338 341 341 341 339 339 337 339 335 342 344 345 347 349 349 347 347 347 345
319 318 319 320 321 320 321 322 322 324 324 323 321 321 320 325 331 338 337 335 341 341 340 340 344 344 344 345 347 349 348 347 348
318 317 318 319 319 320 319 320 321 322 322 322 321 320 319 318 317 318 324 331 328 331 335 340 341 342 344 345 345 347 349 351 350
318 317 317 317 317 318 317 316 316 318 319 319 319 319 318 317 315 315 315 315 316 317 317 318 328 338 337 341 344 345 347 349 349
316 315 314 313 313 313 312 312 312 312 313 313 312 312 311 311 311 311 311 311 312 312 313 314 316 317 316 317 325 333 336 338 343
314 314 313 313 312 312 312 312 311 310 309 308 308 308 308 308 309 309 309 310 310 311 311 312 313 315 317 318 319 331 337 343 344
313 313 313 312 312 311 310 310 309 309 307 306 306 305 305 305 306 307 307 308 308 309 310 312 313 314 316 318 319 320 327 333 335
313 313 312 312 310 307 307 307 306 305 305 304 304 304 304 305 305 305 306 306 306 307 307 308 309 310 312 315 315 317 319 322 326
312 312 311 310 310 308 306 306 305 304 303 302 301 302 303 304 304 305 305 305 306 306 306 306 307 307 308 309 312 315 317 319 321
312 311 311 311 310 309 307 306 303 302 301 300 299 300 300 301 302 302 303 304 304 305 305 305 306 306 307 307 307 308 310 313 317

GFSFLT1_850_thetae_087.txt.gz
Theta_e
346 345 345 344 344 342 344 343 342 342 344 343 343 341 340 338 345 345 345 345 346 345 344 344 345 345 345 345 343 342 343 341 340
342 345 347 345 345 343 343 343 341 343 345 345 344 343 341 339 344 344 344 344 344 345 346 345 345 345 345 343 341 340 340 342 341
338 341 346 348 345 346 345 343 343 344 345 345 345 345 343 340 342 344 344 345 347 345 344 345 346 345 347 348 347 341 339 341 341
338 341 343 345 346 347 347 346 345 346 346 346 346 345 344 341 341 345 344 344 346 344 344 346 346 347 346 347 348 341 340 343 340
335 338 341 343 345 347 347 347 347 346 347 347 347 345 341 341 341 342 344 342 342 345 345 346 345 347 348 347 341 340 345 345 346
334 335 337 340 343 344 346 347 346 346 347 347 344 344 343 340 342 342 340 340 342 340 342 345 345 346 345 344 341 340 343 346 343
330 335 337 338 341 341 344 346 345 345 345 346 342 340 343 341 341 343 342 341 342 344 343 345 346 345 346 346 345 341 343 345 345
324 329 332 335 338 340 342 343 345 345 344 341 341 339 340 342 343 342 342 343 343 343 345 341 342 344 347 346 342 343 346 347 346
321 323 324 326 330 337 339 342 342 343 343 337 337 339 341 338 338 337 340 339 341 342 342 343 343 343 344 345 347 347 344 344 347
321 321 322 323 323 324 327 335 338 340 340 340 339 338 339 341 341 340 340 339 340 340 340 339 340 344 345 344 345 346 346 346 345
321 321 320 320 321 322 323 324 323 326 331 337 338 340 340 340 340 340 338 337 338 340 339 337 336 339 342 343 344 344 345 346 346
320 321 321 321 322 322 323 324 324 323 322 323 325 328 332 334 337 340 339 338 339 338 339 338 336 338 338 340 342 343 343 342 343
319 320 320 320 321 321 321 322 324 323 323 322 320 320 320 319 322 325 329 333 332 335 336 339 339 339 340 340 340 341 342 343 345
318 318 319 319 319 319 319 318 319 320 320 320 319 318 318 317 316 315 316 317 317 322 330 329 326 326 328 327 329 336 340 341 343
317 317 317 317 317 316 315 313 312 312 313 313 313 312 311 311 311 311 311 312 312 313 313 317 321 314 316 317 320 330 333 338 338
317 316 315 314 313 312 311 311 310 309 309 309 308 307 307 308 308 308 309 309 310 310 311 311 311 312 313 315 319 318 328 332 337
316 315 314 313 312 311 311 310 308 306 306 305 304 304 304 305 305 306 306 307 307 307 308 309 310 310 311 311 312 314 318 319 327
314 313 313 312 312 310 308 306 305 304 304 303 303 303 303 304 304 304 305 305 305 306 306 306 306 307 307 308 308 309 310 311 313
313 312 312 312 310 308 306 305 305 303 302 301 300 300 301 302 303 303 304 304 304 304 304 305 305 305 305 306 307 307 307 308 308
313 312 312 311 309 309 309 306 304 302 301 300 299 299 300 301 301 301 302 302 303 303 303 303 304 304 304 304 305 305 306 307 307

GFSFLT1_850_thetae_090.txt.gz
Theta_e
344 343 341 341 344 344 343 344 345 344 342 343 343 343 343 341 339 344 345 345 345 346 346 343 343 344 344 340 343 341 343 343 343
345 344 343 341 342 344 343 344 344 343 342 343 344 343 343 343 338 342 344 344 343 343 345 345 343 344 342 344 345 344 341 342 342
340 345 345 343 342 343 344 343 345 342 343 343 344 344 344 343 342 341 344 344 343 343 344 346 345 345 345 344 344 344 341 340 339
339 340 344 345 344 344 342 342 343 343 343 344 344 344 345 344 344 342 344 345 344 345 345 344 344 345 345 345 346 347 347 339 342
337 341 343 343 344 346 345 343 344 343 343 344 345 345 345 343 345 342 342 345 343 343 344 344 344 344 345 347 347 347 345 339 342
333 337 341 342 345 345 346 346 346 344 343 345 343 346 343 342 343 342 341 342 342 341 340 341 342 343 343 345 344 343 340 341 344
332 335 339 340 342 344 345 346 346 346 346 346 346 346 343 343 343 344 343 343 340 340 341 342 341 343 344 345 344 345 344 342 344
330 332 336 338 340 342 343 344 345 344 344 344 343 343 342 341 339 342 342 342 342 341 342 342 341 341 344 343 345 345 343 344 344
327 329 334 336 338 340 341 342 344 345 344 343 342 341 338 337 336 341 340 339 339 340 341 342 342 341 342 341 341 344 347 347 345
324 325 326 329 335 337 339 340 340 340 341 339 338 338 339 339 338 340 340 337 339 338 339 340 340 338 340 343 343 344 343 344 344
322 323 323 324 325 327 331 333 337 338 339 338 338 338 338 339 339 339 339 340 339 337 336 339 339 338 336 338 340 341 342 343 343
321 321 322 323 323 325 324 324 326 329 331 333 334 335 336 337 338 338 338 337 338 338 338 338 339 339 336 337 338 337 340 341 342
321 320 320 321 322 323 324 324 323 322 321 321 323 324 323 324 325 329 334 335 335 333 334 334 335 337 338 337 337 336 338 339 340
321 320 321 321 321 321 321 322 322 321 320 320 319 318 317 317 317 316 317 319 321 322 323 327 326 319 326 330 336 336 336 335 338
320 320 319 319 319 318 318 317 316 314 314 313 313 312 312 311 311 311 312 312 312 312 313 314 316 318 316 318 319 322 326 330 336
318 318 318 317 317 316 313 312 311 310 309 309 308 308 308 308 308 308 309 309 309 309 310 310 311 311 312 313 315 318 318 320 326
317 317 316 315 313 312 311 311 310 308 306 305 305 304 304 305 305 305 306 306 307 307 307 308 308 308 308 309 309 310 310 312 314
317 316 314 314 313 312 311 309 306 304 303 303 303 303 303 303 303 304 304 304 305 305 305 305 306 306 306 306 306 306 306 307 307
317 315 314 313 312 311 308 306 304 304 303 302 301 301 301 302 302 303 303 304 304 304 304 304 304 304 304 304 304 305 305 305 305
316 315 314 312 312 310 308 307 305 303 301 301 300 300 300 300 301 301 301 301 302 302 302 302 302 302 303 303 303 303 303 304 304

GFSFLT1_850_thetae_093.txt.gz
Theta_e
348 346 344 345 345 343 343 344 343 344 343 343 343 343 342 343 340 341 345 345 345 345 345 344 340 342 341 341 341 341 342 340 343
347 347 345 345 347 345 344 344 343 345 344 343 343 343 343 344 344 339 343 345 345 344 345 344 343 342 342 342 343 344 341 343 342
345 346 344 342 343 346 345 343 344 344 345 346 345 344 344 342 341 340 340 345 344 344 344 345 346 344 343 341 343 343 341 340 341
340 342 343 342 342 342 345 343 343 344 344 343 344 344 344 345 342 341 341 343 344 345 345 345 345 345 345 345 345 345 345 346 342
339 342 343 342 342 342 342 343 344 343 343 344 343 344 343 344 344 343 342 341 342 344 343 345 344 344 344 346 345 344 345 346 341
337 339 340 342 343 344 344 342 343 343 344 343 344 343 343 343 343 342 343 340 340 343 342 343 343 343 343 343 345 345 345 342 340
333 337 339 341 344 345 347 345 344 343 344 345 344 343 343 343 343 340 340 342 341 340 339 338 340 340 340 344 344 344 344 343 341
331 334 337 339 341 342 344 345 345 345 345 345 344 343 341 342 341 342 343 344 343 341 340 340 341 342 342 342 342 343 342 342 344
330 331 335 337 339 340 340 342 343 345 345 345 344 343 342 342 342 341 340 339 340 341 341 341 341 341 342 341 341 341 341 343 342
329 329 333 336 337 339 339 339 341 342 343 343 343 342 340 339 339 338 339 341 339 338 339 339 340 340 339 341 342 341 342 342 342
328 327 327 329 334 337 338 340 340 340 340 341 341 337 338 339 339 338 339 340 339 338 338 336 338 338 338 336 337 340 341 342 343
326 325 325 326 327 332 333 335 336 337 337 337 337 337 337 337 338 338 338 339 338 338 337 337 338 339 339 338 337 336 338 338 339
323 324 324 324 325 325 326 326 326 329 330 330 331 331 332 331 332 332 333 334 333 332 332 332 332 334 336 337 337 336 336 337 336
321 321 322 322 324 324 323 322 322 321 321 320 319 319 318 318 318 318 319 320 322 324 325 327 327 327 325 325 329 334 336 335 335
320 321 321 322 322 322 321 320 319 317 316 314 313 313 312 312 311 311 312 312 312 313 314 316 316 319 319 319 319 319 322 325 328
320 320 320 319 319 318 317 314 312 310 310 309 309 308 308 308 308 308 308 309 309 309 310 310 311 312 313 314 316 316 316 317 318
319 319 318 318 317 315 312 311 311 310 309 307 306 305 305 305 305 305 306 306 306 307 307 308 308 308 309 309 309 309 310 310 310
318 318 317 316 314 312 312 311 309 307 305 304 303 303 303 303 303 304 304 304 304 305 305 305 305 305 305 305 305 305 305 306 306
319 318 317 315 314 313 311 309 307 305 304 303 302 302 301 302 302 303 303 303 303 303 303 304 304 304 303 304 304 304 303 303 303
318 317 317 317 317 312 310 308 307 306 304 302 301 300 300 300 300 301 301 301 301 301 301 301 301 301 301 302 302 302 302 302 303

GFSFLT1_850_thetae_096.txt.gz
Theta_e
349 349 346 346 348 346 349 350 350 345 346 350 347 345 343 344 343 345 346 349 347 345 351 349 350 346 347 348 343 342 341 345 347
348 350 348 346 349 350 350 349 349 343 343 349 352 350 347 343 342 341 348 346 344 347 346 352 349 348 348 348 346 346 343 347 345
348 350 350 348 348 350 348 345 344 342 349 347 345 345 350 343 345 343 345 346 343 345 350 344 346 349 349 349 348 346 341 348 346
350 351 350 349 350 351 351 347 344 344 344 345 349 346 346 345 345 348 347 346 347 345 345 344 344 345 344 348 345 344 343 346 349
344 345 346 347 349 349 349 349 344 343 343 343 343 344 343 344 345 345 348 347 347 347 343 343 344 344 344 344 349 351 345 345 350
342 340 341 342 343 345 347 345 345 344 343 343 344 344 344 343 343 344 345 348 347 348 347 342 347 344 344 344 343 344 344 346 348
339 340 339 342 344 344 344 345 347 345 343 343 343 344 344 343 343 343 341 343 346 347 346 341 347 345 344 342 342 343 344 343 343
338 340 340 340 343 344 344 345 346 345 345 343 343 345 344 343 343 343 343 340 342 343 343 347 346 348 349 348 346 348 344 342 342
338 339 339 336 340 342 344 346 345 346 345 345 344 344 344 343 342 340 342 340 345 343 341 342 343 346 347 350 349 344 341 341 342
338 338 337 334 339 340 341 343 344 345 345 345 345 344 343 342 343 342 341 340 340 340 340 341 341 342 346 342 342 341 341 341 341
336 335 332 332 337 339 339 340 341 343 343 343 343 343 342 342 342 342 340 338 338 339 339 339 338 338 339 339 338 340 342 342 343
335 335 334 332 335 337 337 338 339 340 340 340 340 342 340 337 339 339 339 340 340 340 339 338 337 338 338 338 338 337 336 337 339
332 331 332 332 331 334 334 334 334 335 336 336 336 336 337 337 337 336 337 337 337 337 336 335 334 337 337 336 337 337 337 336 336
328 328 328 326 325 326 326 325 325 326 328 328 327 327 325 325 326 325 327 331 332 331 330 331 329 329 330 332 333 333 334 336 336
326 325 324 324 324 323 322 321 320 320 319 318 317 316 316 314 314 314 314 315 316 317 319 321 322 322 322 322 321 322 323 322 323
325 324 323 324 323 322 320 318 316 313 311 310 310 309 309 309 309 309 309 309 310 310 311 314 313 315 316 315 315 315 316 316 316
324 324 323 322 321 320 317 313 311 311 310 309 308 307 306 306 306 306 306 308 309 311 311 312 313 313 312 310 309 309 309 309 309
324 323 321 321 320 319 316 312 312 310 308 306 305 304 304 304 308 306 306 307 308 309 306 306 310 309 309 309 309 306 306 305 305
323 322 321 320 319 318 315 313 311 309 307 305 304 306 308 309 309 308 308 308 304 304 304 304 304 304 304 304 304 304 303 303 303
322 321 319 318 317 318 316 312 310 308 307 305 303 307 307 306 306 307 307 307 307 305 302 302 302 302 302 302 302 302 302 302 302

GFSFLT1_850_thetae_099.txt.gz
Theta_e
349 347 346 345 347 346 349 349 349 351 354 354 353 351 350 350 349 348 348 350 351 349 349 347 352 352 351 352 351 351 351 348 347
349 349 347 346 347 350 351 351 351 353 354 353 353 352 351 350 350 349 350 349 351 352 350 352 353 350 350 350 350 351 352 347 349
350 349 349 346 348 351 347 348 350 351 347 348 351 353 352 350 351 350 349 349 347 349 350 353 353 350 350 349 350 350 349 350 347
349 350 351 350 348 352 354 352 350 348 344 343 348 352 351 351 351 349 350 349 348 349 350 346 350 348 351 351 351 351 350 344 349
354 354 353 352 351 352 353 351 349 344 343 340 343 348 346 348 345 350 350 350 348 348 350 351 350 349 351 352 351 352 351 351 350
350 350 351 353 353 354 354 352 348 346 344 344 344 343 344 345 346 344 347 348 349 349 349 348 351 352 346 348 349 354 353 350 351
345 345 345 347 349 350 350 351 349 347 344 344 343 343 343 344 344 343 343 343 343 344 349 349 350 352 353 352 351 346 353 353 352
343 344 344 343 343 346 348 349 350 348 345 344 343 343 344 343 342 340 343 343 343 342 343 347 349 350 351 352 351 348 347 351 352
345 344 344 341 344 344 344 344 348 351 348 346 345 347 346 344 342 344 343 344 342 340 343 345 347 348 347 349 349 348 345 344 346
343 343 341 340 339 342 344 345 345 347 348 347 347 346 345 345 345 343 343 342 342 342 344 344 345 346 343 342 342 341 342 344 343
343 340 339 339 337 340 341 343 344 345 346 346 344 345 345 344 342 342 341 340 340 340 340 341 342 344 342 341 340 340 341 342 342
341 339 339 338 334 339 340 340 340 343 343 344 345 344 343 342 342 342 341 340 339 338 340 340 341 341 339 337 337 338 337 337 343
339 338 336 334 332 337 337 337 338 339 340 339 340 341 340 339 338 339 339 339 340 339 339 338 341 340 338 337 337 337 338 338 337
335 335 333 330 332 335 334 334 333 334 334 335 335 335 335 335 335 335 335 336 336 335 334 334 335 334 335 336 335 335 334 336 336
333 332 330 330 328 326 324 325 324 323 323 325 323 321 325 319 320 321 322 323 326 329 329 330 329 329 327 326 330 329 328 326 326
331 330 329 326 324 322 322 322 321 318 315 314 313 312 312 312 312 311 311 311 312 312 314 320 322 322 322 321 319 318 318 317 316
330 329 327 326 325 324 322 316 312 311 311 311 311 310 309 309 308 308 308 310 313 316 316 316 317 317 317 317 316 312 310 309 309
330 328 327 326 324 323 322 320 319 315 311 309 308 307 308 306 309 308 311 314 313 313 314 313 315 315 315 315 315 314 306 305 305
329 328 326 325 324 323 322 320 318 314 311 309 315 314 314 313 313 313 313 312 308 306 305 305 306 307 306 306 306 305 304 303 303
328 327 326 325 324 323 322 321 318 313 310 308 307 311 312 312 309 311 311 311 312 309 304 303 303 303 304 303 303 302 302 302 302

GFSFLT1_850_thetae_102.txt.gz
Theta_e
346 345 347 344 346 347 349 351 352 351 350 347 349 348 349 347 347 346 348 350 350 345 349 345 349 349 345 347 347 345 346 345 342
342 340 345 346 347 347 344 350 354 343 351 349 350 351 347 348 349 347 349 348 348 352 350 345 348 348 350 345 352 347 349 342 348
340 340 345 344 345 347 343 342 347 352 346 350 351 353 350 347 338 338 348 349 346 349 348 346 341 347 349 348 347 349 349 346 349
347 349 350 346 345 346 345 340 349 349 352 347 351 353 353 351 349 349 344 344 345 349 349 347 346 349 350 350 346 345 345 342 348
353 350 349 347 347 348 352 353 352 350 348 346 341 343 346 349 347 347 350 349 348 348 349 348 348 345 347 348 349 350 349 343 345
355 357 354 350 353 353 351 348 348 346 347 345 343 342 340 345 348 346 348 350 346 347 348 347 347 348 346 344 345 346 348 349 347
352 354 355 355 354 353 353 354 351 348 346 344 343 341 344 343 344 344 344 345 347 346 344 346 348 343 348 348 346 347 348 350 346
349 348 348 352 351 352 355 353 351 350 349 347 343 344 343 343 342 342 342 340 343 343 342 340 339 346 346 349 349 349 346 346 348
346 346 346 343 345 348 350 351 352 349 349 350 345 343 344 345 345 344 341 341 341 341 342 342 341 340 345 343 345 346 345 343 345
347 345 343 342 343 343 345 345 351 351 351 348 348 346 346 346 346 344 343 343 345 344 342 340 336 336 337 335 339 340 341 342 344
344 342 341 339 339 342 344 344 344 348 349 349 348 348 348 346 346 345 343 342 342 341 342 341 340 341 336 341 342 341 341 341 342
342 340 340 338 336 340 341 343 344 345 346 346 347 345 345 345 344 341 341 341 340 340 339 340 341 342 341 341 338 338 338 337 341
341 338 337 336 336 338 339 340 341 342 343 343 343 344 344 343 342 342 342 340 339 339 338 340 340 341 340 339 339 337 337 338 337
338 336 333 331 336 337 338 338 338 339 339 339 339 339 339 339 340 338 338 338 338 339 338 338 338 338 338 338 337 335 335 335 336
335 333 331 330 334 335 334 335 334 336 335 335 335 335 334 336 336 336 335 335 334 335 334 335 336 335 333 330 330 330 330 330 327
333 332 331 330 328 326 325 325 324 323 322 322 319 317 319 324 317 314 315 316 316 317 319 326 326 325 324 324 324 326 322 317 317
332 331 330 328 326 324 323 322 318 314 312 311 311 310 311 310 309 309 309 310 311 316 318 317 315 319 320 320 320 317 312 311 310
331 330 329 328 327 326 320 314 312 313 313 312 310 309 309 308 309 309 308 311 312 314 317 317 318 319 319 318 318 316 314 307 305
330 329 329 328 326 325 324 323 320 317 313 312 313 312 313 312 313 313 313 314 312 312 310 309 313 315 316 314 311 311 309 304 303
329 329 328 327 327 326 324 323 321 316 313 311 310 315 315 315 313 315 314 314 314 313 310 308 304 304 305 305 304 304 303 302 302

GFSFLT1_850_thetae_105.txt.gz
Theta_e
344 344 346 345 343 345 346 345 345 347 346 341 342 348 346 346 347 345 345 346 347 347 348 344 346 346 346 344 341 350 347 344 342
343 345 345 346 345 344 346 350 349 345 349 343 340 343 344 344 343 347 349 348 347 348 346 342 344 346 347 346 347 345 345 346 345
342 343 343 345 347 345 346 351 349 348 349 345 338 344 346 346 346 345 350 348 344 345 347 346 343 344 344 344 346 346 346 347 348
342 340 341 344 346 346 346 347 349 348 345 347 345 348 349 347 340 339 342 345 346 344 342 345 340 341 345 344 346 345 348 346 343
343 341 343 343 346 345 346 344 344 343 339 349 349 352 351 350 341 343 345 346 346 344 340 344 342 345 344 348 349 349 348 346 344
344 342 342 342 345 346 345 344 343 344 342 343 347 348 347 347 345 346 343 348 347 347 343 343 345 344 344 344 347 347 346 347 346
354 345 344 345 345 344 341 344 345 344 348 347 348 346 343 344 343 344 344 346 346 346 342 346 347 344 341 347 347 345 346 346 347
350 350 349 347 346 345 344 345 349 350 349 348 346 343 343 341 343 344 344 344 343 342 344 346 342 346 345 347 344 343 344 343 344
347 348 350 351 350 350 351 351 350 349 348 347 345 345 343 343 343 343 342 343 341 341 341 343 342 339 341 344 343 342 342 343 344
346 346 344 344 346 350 351 352 350 350 350 348 345 344 343 343 345 345 344 342 342 343 343 342 342 342 340 335 333 333 338 341 341
346 344 342 342 342 345 348 349 351 352 349 349 348 347 346 346 346 346 345 343 342 341 342 342 341 338 336 335 331 338 341 341 340
343 341 340 339 339 341 342 344 344 347 350 351 349 347 346 347 346 345 343 341 341 340 340 342 342 340 342 342 341 339 339 338 339
340 340 339 338 336 339 340 341 343 342 346 347 346 347 346 344 344 343 341 340 341 340 340 339 340 340 340 340 339 338 337 337 337
339 338 336 336 337 338 338 339 339 342 343 343 342 343 343 343 343 342 341 340 338 339 339 338 339 339 338 338 338 338 337 335 336
335 334 332 336 337 337 337 337 338 339 339 339 339 339 339 339 339 340 339 338 338 337 336 337 337 336 336 334 332 332 331 330 329
332 331 330 333 333 334 335 336 335 336 336 336 335 334 333 332 333 333 333 334 333 330 331 332 332 331 326 328 327 326 325 321 315
331 330 329 328 327 326 324 323 322 323 323 321 318 315 315 319 317 313 312 312 312 313 314 315 319 321 322 321 321 320 317 312 308
331 330 328 328 326 323 322 319 315 312 311 312 311 311 311 311 310 310 309 310 311 312 314 317 318 317 317 318 318 318 316 314 310
330 329 329 328 327 325 320 314 312 313 313 311 311 309 309 309 310 312 310 309 309 310 312 315 315 316 317 318 318 317 313 307 305
329 327 328 328 327 326 325 322 318 317 314 312 313 315 316 315 314 315 314 314 313 313 311 310 310 306 305 308 311 309 305 304 303

GFSFLT1_850_thetae_108.txt.gz
Theta_e
343 344 345 344 344 346 346 345 345 344 342 345 342 341 343 348 346 346 346 344 345 347 347 346 345 345 346 346 341 338 343 343 344
342 343 346 344 345 345 346 346 346 343 343 345 341 340 342 346 348 346 344 345 347 347 345 345 345 346 345 344 342 343 342 342 342
343 342 345 345 344 344 346 347 345 345 345 346 343 342 342 340 339 346 347 347 346 346 346 345 344 346 345 342 340 348 345 344 345
343 342 343 345 345 345 344 347 346 346 347 348 345 341 341 345 344 344 347 348 346 344 344 343 344 341 342 342 346 346 346 347 346
342 341 342 343 346 346 344 347 347 340 346 348 347 342 344 346 346 346 344 345 343 340 339 343 344 344 345 345 344 346 347 344 343
342 341 342 343 345 346 346 345 339 340 347 346 345 344 346 349 344 339 339 343 344 344 345 343 341 343 345 344 347 347 348 346 345
344 343 341 342 342 344 346 345 343 343 347 343 343 343 346 346 345 344 344 344 343 345 345 344 341 343 343 343 347 346 345 345 344
346 343 342 342 342 342 345 345 344 344 343 343 344 342 346 344 344 342 342 343 344 345 345 344 343 346 346 342 342 345 343 343 342
348 349 344 342 343 345 345 345 343 340 345 345 345 345 346 345 342 342 343 344 344 343 341 341 345 345 343 341 342 343 342 342 343
348 348 347 345 345 345 345 345 343 341 343 347 346 347 344 343 342 343 343 342 342 342 342 342 341 343 342 341 339 336 332 335 339
347 348 347 347 347 347 346 345 343 344 344 348 348 346 346 344 343 344 344 343 342 342 341 342 341 341 341 338 335 332 333 332 340
345 343 343 343 343 346 347 347 348 347 348 348 348 346 345 344 345 344 343 344 342 341 340 341 341 340 338 337 337 338 339 339 339
340 339 338 337 338 340 340 343 348 349 349 348 348 348 347 347 345 346 344 341 341 340 339 340 341 341 341 341 340 339 338 336 336
338 337 336 336 337 337 338 341 342 343 345 345 346 347 345 346 344 343 341 340 340 340 339 339 339 339 339 338 337 337 337 337 336
334 332 334 335 337 337 336 338 339 342 341 342 342 342 341 342 341 341 340 339 338 338 338 338 338 338 337 336 334 331 330 330 332
331 331 334 332 333 334 335 336 337 338 338 338 338 338 338 338 338 338 338 337 336 335 335 336 336 336 335 331 329 327 327 322 319
332 330 329 331 332 332 330 331 332 332 333 333 332 331 328 327 328 329 330 329 327 327 329 331 331 329 327 325 323 322 318 315 309
329 329 329 327 325 325 324 322 319 317 314 313 312 312 312 312 313 312 311 311 311 313 315 315 316 316 319 319 319 318 317 316 312
330 328 328 328 326 325 317 314 312 312 312 312 311 310 310 309 310 310 310 310 310 311 311 314 316 316 316 317 318 317 317 316 309
326 327 325 325 325 325 325 322 315 314 314 313 313 313 314 314 313 314 314 313 313 313 312 311 309 310 309 306 306 310 312 310 305

GFSFLT1_850_thetae_111.txt.gz
Theta_e
344 346 344 344 343 343 344 343 341 340 341 341 343 343 338 344 345 343 342 346 346 344 345 345 347 347 346 345 345 339 338 341 344
343 344 344 345 344 344 344 344 343 342 340 341 342 342 340 344 346 345 344 345 344 346 347 347 346 345 345 345 345 340 343 344 343
343 343 345 344 345 345 345 345 344 344 343 342 343 343 342 342 344 347 346 343 345 346 345 345 345 344 345 345 345 342 344 342 345
343 344 345 344 344 344 345 344 345 345 344 344 345 343 341 345 343 344 344 345 346 345 345 346 344 344 347 346 344 343 347 345 344
342 343 345 345 345 344 344 345 346 345 345 345 346 346 344 346 343 344 345 344 347 345 343 343 343 343 343 343 343 345 346 345 347
343 343 344 344 345 345 344 345 345 346 346 345 346 348 345 342 341 343 341 344 342 343 340 341 343 343 344 346 347 345 346 347 347
342 343 343 343 344 346 345 345 345 346 345 342 346 345 344 343 343 344 342 342 340 341 344 344 342 340 339 344 344 345 345 346 346
341 342 342 342 344 343 345 345 345 344 342 342 346 346 343 342 342 344 344 341 343 344 344 344 344 342 342 343 341 343 346 344 344
342 341 342 341 339 340 342 343 343 344 342 342 345 343 343 343 344 344 343 344 343 344 344 344 343 343 343 344 343 340 342 342 341
346 343 343 342 342 341 342 342 343 345 344 343 343 343 344 344 344 344 342 342 343 344 343 343 341 341 342 344 343 339 340 337 340
343 343 344 344 344 344 344 344 339 344 344 343 342 343 345 344 344 343 342 343 343 342 342 342 342 341 341 342 342 341 338 335 333
343 343 343 342 342 344 345 345 340 341 343 337 341 344 344 344 343 343 343 344 343 342 342 341 341 341 340 339 337 336 335 335 338
339 338 337 338 340 342 343 344 344 343 344 339 339 336 343 345 344 343 344 343 343 341 340 340 341 341 340 339 340 339 338 337 337
335 334 335 336 337 339 340 342 344 346 347 346 344 345 345 344 345 345 344 343 341 340 340 339 340 341 340 339 339 338 337 337 337
331 334 334 335 335 336 338 338 340 342 343 342 341 342 343 344 343 342 342 341 340 340 339 339 339 338 338 337 336 333 331 332 333
332 334 334 334 334 335 336 337 338 339 339 339 339 339 340 340 341 341 341 340 338 338 337 337 337 337 336 335 333 330 329 326 318
329 328 332 333 333 333 333 334 334 335 336 336 335 336 336 336 336 336 336 335 333 333 334 335 335 334 334 330 327 325 322 317 313
328 327 327 326 325 327 327 325 325 324 324 323 322 321 322 322 320 317 315 316 317 319 319 321 324 324 320 320 319 319 318 317 316
328 327 326 326 325 322 316 313 313 312 311 311 311 311 310 310 310 310 310 310 310 311 312 313 315 316 316 316 316 317 317 317 316
328 324 324 324 324 324 323 322 315 314 314 313 313 313 313 313 312 313 313 313 312 312 312 311 310 310 310 309 308 306 305 308 311

GFSFLT1_850_thetae_114.txt.gz
Theta_e
344 341 341 343 342 342 342 342 342 342 342 342 341 341 342 342 342 343 344 344 344 345 345 346 345 346 346 344 343 343 342 341 341
344 344 343 342 342 342 343 343 343 341 343 342 341 342 343 341 340 346 344 342 345 344 344 345 345 345 346 345 345 345 341 338 343
343 344 344 343 342 342 342 343 343 342 340 339 340 340 343 340 341 346 346 344 346 344 345 345 346 346 346 345 344 344 343 345 344
344 343 344 344 343 342 343 343 343 343 342 341 340 340 342 341 343 343 346 345 343 345 346 345 345 345 343 344 345 345 345 343 343
343 343 343 345 344 344 343 343 344 344 343 343 341 342 344 342 341 342 344 340 345 344 345 344 344 344 344 345 344 344 344 343 345
341 342 343 344 342 344 343 344 344 345 344 344 343 344 346 345 343 343 341 340 341 342 344 345 340 342 343 342 342 342 343 344 345
342 343 344 345 344 344 342 343 344 345 345 345 345 345 346 346 343 341 342 342 339 340 339 341 343 343 342 343 344 345 345 344 345
342 343 344 345 345 344 343 344 344 345 346 345 345 345 345 344 343 341 343 342 342 341 340 342 343 342 341 340 341 341 341 345 344
342 343 342 344 344 344 344 345 345 345 344 344 341 341 345 346 343 341 342 343 343 342 342 343 343 344 344 343 342 344 342 341 343
341 343 343 343 343 343 341 343 344 344 344 343 342 345 345 342 343 343 343 343 342 343 343 344 344 343 339 340 343 343 342 339 340
342 342 342 343 343 343 343 343 342 343 342 343 343 342 343 343 344 343 343 344 342 343 343 342 342 342 341 342 342 342 341 339 334
341 342 343 342 342 343 344 343 343 342 342 344 344 343 342 342 337 338 341 343 342 342 342 342 342 342 341 341 340 339 337 336 336
336 336 337 339 340 341 343 344 342 338 339 343 339 340 342 345 344 341 342 343 343 343 342 341 341 341 340 340 338 338 337 337 336
333 335 336 336 337 339 340 342 342 342 342 343 341 338 339 339 343 342 343 343 342 340 340 340 340 340 339 340 340 339 338 337 337
333 335 336 336 336 337 337 339 342 343 343 342 344 343 341 336 336 340 343 342 341 339 339 339 339 338 337 338 338 335 332 331 330
334 334 334 334 335 336 337 337 338 339 338 336 338 339 340 338 335 340 341 341 340 339 339 338 338 338 337 336 335 333 330 327 324
332 332 332 333 332 333 333 334 335 336 336 336 336 337 336 336 335 336 336 337 337 336 337 338 338 336 334 333 330 327 324 320 316
326 325 324 325 326 326 326 328 328 329 329 329 330 330 328 325 323 323 323 325 326 328 331 332 332 331 328 322 320 322 321 318 317
325 324 323 323 321 316 313 313 312 312 312 311 311 311 311 311 311 310 310 310 311 312 313 314 315 315 315 316 316 316 316 317 317
325 325 324 324 323 323 321 315 314 314 313 313 313 314 314 314 313 313 313 312 311 312 312 312 311 310 310 310 309 308 307 306 306

GFSFLT1_850_thetae_117.txt.gz
Theta_e
344 343 342 343 345 345 342 341 342 341 340 340 340 341 341 342 343 344 344 345 344 345 344 345 346 345 344 343 343 344 342 343 343
346 342 342 343 345 343 341 341 342 342 341 341 341 341 341 341 344 342 343 344 344 344 345 345 345 345 345 345 346 346 344 341 341
345 343 342 343 345 344 341 342 342 342 341 341 341 342 341 342 342 341 342 345 343 344 345 344 345 346 345 345 346 345 345 343 340
345 344 342 342 342 342 341 341 342 342 342 341 342 342 341 342 343 340 343 345 344 345 344 345 345 345 345 345 345 345 344 344 343
344 344 343 342 342 341 342 342 342 342 342 341 341 340 340 340 342 341 344 343 345 342 344 345 344 345 344 343 343 343 345 344 344
344 344 343 343 343 342 342 342 342 342 343 343 341 341 340 341 343 342 342 343 344 341 343 343 344 342 342 343 344 345 344 342 342
344 344 344 343 343 343 343 342 342 342 343 343 343 342 342 342 345 342 342 344 342 344 341 341 341 341 341 343 343 341 342 343 344
343 343 344 345 344 345 343 342 344 343 344 344 344 343 343 343 345 345 345 343 344 341 341 340 338 340 342 342 342 341 341 342 343
343 344 345 346 344 344 343 343 342 342 343 344 344 345 345 344 345 345 345 341 343 343 342 339 341 343 342 343 341 342 342 343 341
344 344 345 346 345 344 344 343 342 343 343 344 344 344 344 344 344 345 344 342 341 343 342 341 342 342 343 343 343 340 343 343 341
343 342 343 343 344 344 344 343 341 340 343 344 343 343 343 342 345 345 343 342 343 343 343 342 342 342 343 341 339 339 342 342 341
341 341 340 342 342 342 343 343 343 342 341 342 342 342 342 343 344 343 344 343 343 343 343 342 342 341 341 341 341 341 341 339 338
339 340 340 341 341 341 341 342 342 342 342 340 341 343 343 342 343 343 339 339 340 341 342 342 342 342 341 341 339 338 336 336 336
334 336 337 338 339 340 342 342 342 342 342 339 342 341 340 341 339 341 340 339 341 342 342 342 341 339 339 339 339 339 339 338 337
334 335 336 337 337 338 339 340 341 340 341 341 342 340 339 339 338 339 337 338 340 341 340 340 339 339 339 338 337 338 337 334 334
333 334 334 336 337 337 336 337 337 337 337 338 339 338 338 337 338 335 336 330 338 336 338 339 339 337 338 337 336 334 332 330 329
332 332 332 333 333 333 333 334 335 336 336 336 336 336 336 336 337 336 331 333 335 337 338 338 338 338 337 335 333 330 328 325 321
328 328 327 326 327 328 326 325 326 324 323 324 328 329 330 332 333 333 333 330 331 333 334 334 334 334 332 329 325 324 324 322 318
322 320 317 314 314 313 311 311 311 311 311 310 310 310 310 310 310 310 311 312 313 315 316 316 316 316 315 316 316 316 317 317 317
323 323 322 322 318 314 314 314 313 313 314 314 314 315 314 314 314 313 313 312 312 312 312 311 311 311 310 310 310 309 309 309 308